Wetterdaten: Freitag, 24.05.2013
Datum Zeit Temp. Aussen +5cm Feuchte Auss Luftdruck Regen Sonnenschein Regendauer UV Solar Windben
24.05.2013 00:00 4,1 C 2,3 C 90 % 1010,2 hPa 0,0 l/m 0 min 0 min 0,0 UV-I 0 W/m 0,0 km/h (0 Bft)
24.05.2013 00:02 4,0 C 2,3 C 90 % 1010,1 hPa 0,0 l/m 0 min 0 min 0,0 UV-I 0 W/m 0,0 km/h (0 Bft)
24.05.2013 00:06 3,9 C 2,3 C 91 % 1010,2 hPa 0,0 l/m 0 min 0 min 0,0 UV-I 0 W/m 0,0 km/h (0 Bft)
24.05.2013 00:08 3,9 C 2,3 C 91 % 1010,2 hPa 0,0 l/m 0 min 0 min 0,0 UV-I 0 W/m 0,0 km/h (0 Bft)
24.05.2013 00:10 3,9 C 2,3 C 91 % 1010,2 hPa 0,0 l/m 0 min 0 min 0,0 UV-I 0 W/m 0,0 km/h (0 Bft)
24.05.2013 00:12 3,9 C 2,3 C 91 % 1010,2 hPa 0,0 l/m 0 min 0 min 0,0 UV-I 0 W/m 2,6 km/h (1 Bft)
24.05.2013 00:14 3,9 C 2,9 C 91 % 1010,2 hPa 0,0 l/m 0 min 0 min 0,0 UV-I 0 W/m 0,0 km/h (0 Bft)
24.05.2013 00:16 3,8 C 2,9 C 91 % 1010,2 hPa 0,0 l/m 0 min 0 min 0,0 UV-I 0 W/m 0,0 km/h (0 Bft)
24.05.2013 00:18 3,8 C 2,9 C 91 % 1010,2 hPa 0,0 l/m 0 min 0 min 0,0 UV-I 0 W/m 0,0 km/h (0 Bft)
24.05.2013 00:20 3,8 C 2,9 C 91 % 1010,2 hPa 0,0 l/m 0 min 0 min 0,0 UV-I 0 W/m 0,0 km/h (0 Bft)
24.05.2013 00:22 3,8 C 2,3 C 91 % 1010,2 hPa 0,0 l/m 0 min 0 min 0,0 UV-I 0 W/m 0,0 km/h (0 Bft)
24.05.2013 00:24 3,8 C 2,3 C 92 % 1010,2 hPa 0,0 l/m 0 min 0 min 0,0 UV-I 0 W/m 0,0 km/h (0 Bft)
24.05.2013 00:26 3,8 C 2,3 C 92 % 1010,2 hPa 0,0 l/m 0 min 0 min 0,0 UV-I 0 W/m 0,0 km/h (0 Bft)
24.05.2013 00:28 3,8 C 2,3 C 92 % 1010,2 hPa 0,0 l/m 0 min 0 min 0,0 UV-I 0 W/m 0,0 km/h (0 Bft)
24.05.2013 00:30 3,8 C 2,3 C 92 % 1010,2 hPa 0,0 l/m 0 min 0 min 0,0 UV-I 0 W/m 0,0 km/h (0 Bft)
24.05.2013 00:32 3,7 C 2,3 C 92 % 1010,2 hPa 0,0 l/m 0 min 0 min 0,0 UV-I 0 W/m 0,0 km/h (0 Bft)
24.05.2013 00:34 3,7 C 2,3 C 92 % 1010,2 hPa 0,0 l/m 0 min 0 min 0,0 UV-I 0 W/m 0,0 km/h (0 Bft)
24.05.2013 00:36 3,7 C 2,3 C 92 % 1010,1 hPa 0,0 l/m 0 min 0 min 0,0 UV-I 0 W/m 0,0 km/h (0 Bft)
24.05.2013 00:38 3,7 C 2,3 C 92 % 1010,2 hPa 0,0 l/m 0 min 0 min 0,0 UV-I 0 W/m 0,0 km/h (0 Bft)
24.05.2013 00:40 3,7 C 2,3 C 92 % 1010,1 hPa 0,0 l/m 0 min 0 min 0,0 UV-I 0 W/m 0,0 km/h (0 Bft)
24.05.2013 00:42 3,7 C 2,3 C 92 % 1010,2 hPa 0,0 l/m 0 min 0 min 0,0 UV-I 0 W/m 0,0 km/h (0 Bft)
24.05.2013 00:44 3,7 C 2,3 C 92 % 1010,1 hPa 0,0 l/m 0 min 0 min 0,0 UV-I 0 W/m 0,0 km/h (0 Bft)
24.05.2013 00:46 3,7 C 2,3 C 92 % 1010,1 hPa 0,0 l/m 0 min 0 min 0,0 UV-I 0 W/m 0,0 km/h (0 Bft)
24.05.2013 00:48 3,6 C 2,3 C 92 % 1010,1 hPa 0,0 l/m 0 min 0 min 0,0 UV-I 0 W/m 0,0 km/h (0 Bft)
24.05.2013 00:50 3,6 C 2,3 C 92 % 1010,2 hPa 0,0 l/m 0 min 0 min 0,0 UV-I 0 W/m 0,0 km/h (0 Bft)
24.05.2013 00:52 3,6 C 2,3 C 92 % 1010,2 hPa 0,0 l/m 0 min 0 min 0,0 UV-I 0 W/m 0,0 km/h (0 Bft)
24.05.2013 00:54 3,6 C 2,3 C 92 % 1010,1 hPa 0,0 l/m 0 min 0 min 0,0 UV-I 0 W/m 0,0 km/h (0 Bft)
24.05.2013 00:56 3,6 C 2,3 C 92 % 1010,1 hPa 0,0 l/m 0 min 0 min 0,0 UV-I 0 W/m 0,0 km/h (0 Bft)
24.05.2013 00:58 3,6 C 2,3 C 92 % 1010,1 hPa 0,0 l/m 0 min 0 min 0,0 UV-I 0 W/m 0,0 km/h (0 Bft)
24.05.2013 01:00 3,6 C 2,9 C 92 % 1010,1 hPa 0,0 l/m 0 min 0 min 0,0 UV-I 0 W/m 2,6 km/h (1 Bft)
24.05.2013 01:02 3,6 C 2,9 C 93 % 1010,1 hPa 0,0 l/m 0 min 0 min 0,0 UV-I 0 W/m 5,1 km/h (1 Bft)
24.05.2013 01:04 3,6 C 2,9 C 93 % 1010,1 hPa 0,0 l/m 0 min 0 min 0,0 UV-I 0 W/m 5,1 km/h (1 Bft)
24.05.2013 01:06 3,6 C 2,9 C 93 % 1010,1 hPa 0,0 l/m 0 min 0 min 0,0 UV-I 0 W/m 0,0 km/h (0 Bft)
24.05.2013 01:08 3,6 C 2,9 C 93 % 1010,1 hPa 0,0 l/m 0 min 0 min 0,0 UV-I 0 W/m 7,7 km/h (2 Bft)
24.05.2013 01:10 3,6 C 2,9 C 93 % 1010,1 hPa 0,0 l/m 0 min 0 min 0,0 UV-I 0 W/m 2,6 km/h (1 Bft)
24.05.2013 01:12 3,6 C 2,9 C 93 % 1010,1 hPa 0,0 l/m 0 min 0 min 0,0 UV-I 0 W/m 0,0 km/h (0 Bft)
24.05.2013 01:14 3,6 C 2,9 C 93 % 1010,1 hPa 0,0 l/m 0 min 0 min 0,0 UV-I 0 W/m 2,6 km/h (1 Bft)
24.05.2013 01:16 3,6 C 2,3 C 93 % 1010,1 hPa 0,0 l/m 0 min 0 min 0,0 UV-I 0 W/m 0,0 km/h (0 Bft)
24.05.2013 01:18 3,6 C 2,3 C 93 % 1010,2 hPa 0,0 l/m 0 min 0 min 0,0 UV-I 0 W/m 5,1 km/h (1 Bft)
24.05.2013 01:20 3,6 C 2,9 C 93 % 1010,2 hPa 0,0 l/m 0 min 0 min 0,0 UV-I 0 W/m 2,6 km/h (1 Bft)
24.05.2013 01:22 3,6 C 2,9 C 93 % 1010,2 hPa 0,0 l/m 0 min 0 min 0,0 UV-I 0 W/m 7,7 km/h (2 Bft)
24.05.2013 01:24 3,6 C 2,9 C 94 % 1010,2 hPa 0,0 l/m 0 min 0 min 0,0 UV-I 0 W/m 5,1 km/h (1 Bft)
24.05.2013 01:26 3,6 C 2,9 C 94 % 1010,1 hPa 0,0 l/m 0 min 0 min 0,0 UV-I 0 W/m 0,0 km/h (0 Bft)
24.05.2013 01:28 3,5 C 2,9 C 94 % 1010,2 hPa 0,0 l/m 0 min 0 min 0,0 UV-I 0 W/m 2,6 km/h (1 Bft)
24.05.2013 01:30 3,5 C 2,9 C 94 % 1010,2 hPa 0,0 l/m 0 min 0 min 0,0 UV-I 0 W/m 0,0 km/h (0 Bft)
24.05.2013 01:32 3,5 C 2,9 C 94 % 1010,2 hPa 0,0 l/m 0 min 0 min 0,0 UV-I 0 W/m 0,0 km/h (0 Bft)
24.05.2013 01:34 3,5 C 2,9 C 94 % 1010,2 hPa 0,0 l/m 0 min 0 min 0,0 UV-I 0 W/m 0,0 km/h (0 Bft)
24.05.2013 01:36 3,5 C 2,9 C 94 % 1010,2 hPa 0,0 l/m 0 min 0 min 0,0 UV-I 0 W/m 0,0 km/h (0 Bft)
24.05.2013 01:38 3,5 C 2,3 C 94 % 1010,2 hPa 0,0 l/m 0 min 0 min 0,0 UV-I 0 W/m 0,0 km/h (0 Bft)
24.05.2013 01:40 3,5 C 2,3 C 94 % 1010,2 hPa 0,0 l/m 0 min 0 min 0,0 UV-I 0 W/m 0,0 km/h (0 Bft)
24.05.2013 01:42 3,5 C 2,3 C 94 % 1010,1 hPa 0,0 l/m 0 min 0 min 0,0 UV-I 0 W/m 0,0 km/h (0 Bft)
24.05.2013 01:44 3,4 C 2,3 C 94 % 1010,1 hPa 0,0 l/m 0 min 0 min 0,0 UV-I 0 W/m 5,1 km/h (1 Bft)
24.05.2013 01:46 3,4 C 2,3 C 94 % 1010,1 hPa 0,0 l/m 0 min 0 min 0,0 UV-I 0 W/m 0,0 km/h (0 Bft)
24.05.2013 01:48 3,4 C 2,3 C 94 % 1010,1 hPa 0,0 l/m 0 min 0 min 0,0 UV-I 0 W/m 0,0 km/h (0 Bft)
24.05.2013 01:50 3,4 C 2,3 C 94 % 1010,1 hPa 0,0 l/m 0 min 0 min 0,0 UV-I 0 W/m 0,0 km/h (0 Bft)
24.05.2013 01:52 3,4 C 2,3 C 94 % 1010,1 hPa 0,0 l/m 0 min 0 min 0,0 UV-I 0 W/m 0,0 km/h (0 Bft)
24.05.2013 01:54 3,4 C 2,3 C 94 % 1010,2 hPa 0,0 l/m 0 min 0 min 0,0 UV-I 0 W/m 0,0 km/h (0 Bft)
24.05.2013 01:56 3,4 C 2,3 C 94 % 1010,1 hPa 0,0 l/m 0 min 0 min 0,0 UV-I 0 W/m 0,0 km/h (0 Bft)
24.05.2013 01:58 3,4 C 2,3 C 94 % 1010,1 hPa 0,0 l/m 0 min 0 min 0,0 UV-I 0 W/m 0,0 km/h (0 Bft)
24.05.2013 02:00 3,3 C 2,3 C 94 % 1010,1 hPa 0,0 l/m 0 min 0 min 0,0 UV-I 0 W/m 0,0 km/h (0 Bft)
24.05.2013 02:02 3,3 C 2,3 C 94 % 1010,1 hPa 0,0 l/m 0 min 0 min 0,0 UV-I 0 W/m 0,0 km/h (0 Bft)
24.05.2013 02:04 3,3 C 2,3 C 94 % 1010,1 hPa 0,0 l/m 0 min 0 min 0,0 UV-I 0 W/m 0,0 km/h (0 Bft)
24.05.2013 02:06 3,3 C 2,3 C 94 % 1010,1 hPa 0,0 l/m 0 min 0 min 0,0 UV-I 0 W/m 0,0 km/h (0 Bft)
24.05.2013 02:08 3,3 C 2,3 C 94 % 1010,2 hPa 0,0 l/m 0 min 0 min 0,0 UV-I 0 W/m 0,0 km/h (0 Bft)
24.05.2013 02:10 3,3 C 2,3 C 94 % 1010,2 hPa 0,0 l/m 0 min 0 min 0,0 UV-I 0 W/m 0,0 km/h (0 Bft)
24.05.2013 02:12 3,3 C 2,3 C 94 % 1010,1 hPa 0,0 l/m 0 min 0 min 0,0 UV-I 0 W/m 0,0 km/h (0 Bft)
24.05.2013 02:14 3,3 C 2,3 C 94 % 1010,1 hPa 0,0 l/m 0 min 0 min 0,0 UV-I 0 W/m 0,0 km/h (0 Bft)
24.05.2013 02:16 3,3 C 2,3 C 94 % 1010,2 hPa 0,0 l/m 0 min 0 min 0,0 UV-I 0 W/m 0,0 km/h (0 Bft)
24.05.2013 02:18 3,3 C 2,3 C 94 % 1010,2 hPa 0,0 l/m 0 min 0 min 0,0 UV-I 0 W/m 0,0 km/h (0 Bft)
24.05.2013 02:20 3,2 C 2,3 C 94 % 1010,2 hPa 0,0 l/m 0 min 0 min 0,0 UV-I 0 W/m 0,0 km/h (0 Bft)
24.05.2013 02:22 3,2 C 2,3 C 95 % 1010,2 hPa 0,0 l/m 0 min 0 min 0,0 UV-I 0 W/m 0,0 km/h (0 Bft)
24.05.2013 02:24 3,2 C 2,3 C 95 % 1010,2 hPa 0,0 l/m 0 min 0 min 0,0 UV-I 0 W/m 0,0 km/h (0 Bft)
24.05.2013 02:26 3,2 C 2,3 C 95 % 1010,2 hPa 0,0 l/m 0 min 0 min 0,0 UV-I 0 W/m 0,0 km/h (0 Bft)
24.05.2013 02:28 3,2 C 2,3 C 95 % 1010,3 hPa 0,0 l/m 0 min 0 min 0,0 UV-I 0 W/m 0,0 km/h (0 Bft)
24.05.2013 02:30 3,2 C 2,3 C 95 % 1010,2 hPa 0,0 l/m 0 min 0 min 0,0 UV-I 0 W/m 0,0 km/h (0 Bft)
24.05.2013 02:32 3,2 C 2,3 C 95 % 1010,2 hPa 0,0 l/m 0 min 0 min 0,0 UV-I 0 W/m 0,0 km/h (0 Bft)
24.05.2013 02:34 3,2 C 1,8 C 95 % 1010,2 hPa 0,0 l/m 0 min 0 min 0,0 UV-I 0 W/m 0,0 km/h (0 Bft)
24.05.2013 02:36 3,1 C 1,8 C 95 % 1010,2 hPa 0,0 l/m 0 min 0 min 0,0 UV-I 0 W/m 0,0 km/h (0 Bft)
24.05.2013 02:38 3,1 C 1,8 C 95 % 1010,2 hPa 0,0 l/m 0 min 0 min 0,0 UV-I 0 W/m 0,0 km/h (0 Bft)
24.05.2013 02:40 3,1 C 1,8 C 95 % 1010,2 hPa 0,0 l/m 0 min 0 min 0,0 UV-I 0 W/m 0,0 km/h (0 Bft)
24.05.2013 02:42 3,1 C 1,8 C 95 % 1010,3 hPa 0,0 l/m 0 min 0 min 0,0 UV-I 0 W/m 0,0 km/h (0 Bft)
24.05.2013 02:44 3,1 C 1,8 C 95 % 1010,3 hPa 0,0 l/m 0 min 0 min 0,0 UV-I 0 W/m 0,0 km/h (0 Bft)
24.05.2013 02:46 3,1 C 1,8 C 95 % 1010,2 hPa 0,0 l/m 0 min 0 min 0,0 UV-I 0 W/m 0,0 km/h (0 Bft)
24.05.2013 02:48 3,0 C 1,8 C 95 % 1010,3 hPa 0,0 l/m 0 min 0 min 0,0 UV-I 0 W/m 0,0 km/h (0 Bft)
24.05.2013 02:50 3,0 C 1,8 C 95 % 1010,2 hPa 0,0 l/m 0 min 0 min 0,0 UV-I 0 W/m 0,0 km/h (0 Bft)
24.05.2013 02:52 3,0 C 1,8 C 95 % 1010,2 hPa 0,0 l/m 0 min 0 min 0,0 UV-I 0 W/m 0,0 km/h (0 Bft)
24.05.2013 02:54 3,0 C 1,8 C 95 % 1010,2 hPa 0,0 l/m 0 min 0 min 0,0 UV-I 0 W/m 0,0 km/h (0 Bft)
24.05.2013 02:56 2,9 C 1,8 C 95 % 1010,2 hPa 0,0 l/m 0 min 0 min 0,0 UV-I 0 W/m 0,0 km/h (0 Bft)
24.05.2013 02:58 2,9 C 1,8 C 95 % 1010,2 hPa 0,0 l/m 0 min 0 min 0,0 UV-I 0 W/m 0,0 km/h (0 Bft)
24.05.2013 03:00 2,9 C 1,8 C 95 % 1010,2 hPa 0,0 l/m 0 min 0 min 0,0 UV-I 0 W/m 0,0 km/h (0 Bft)
24.05.2013 03:02 2,9 C 1,8 C 95 % 1010,2 hPa 0,0 l/m 0 min 0 min 0,0 UV-I 0 W/m 0,0 km/h (0 Bft)
24.05.2013 03:06 2,8 C 1,8 C 95 % 1010,2 hPa 0,0 l/m 0 min 0 min 0,0 UV-I 0 W/m 0,0 km/h (0 Bft)
24.05.2013 03:08 2,8 C 1,8 C 95 % 1010,3 hPa 0,0 l/m 0 min 0 min 0,0 UV-I 0 W/m 0,0 km/h (0 Bft)
24.05.2013 03:10 2,8 C 1,8 C 95 % 1010,2 hPa 0,0 l/m 0 min 0 min 0,0 UV-I 0 W/m 0,0 km/h (0 Bft)
24.05.2013 03:12 2,8 C 1,8 C 95 % 1010,2 hPa 0,0 l/m 0 min 0 min 0,0 UV-I 0 W/m 0,0 km/h (0 Bft)
24.05.2013 03:14 2,8 C 1,8 C 95 % 1010,2 hPa 0,0 l/m 0 min 0 min 0,0 UV-I 0 W/m 0,0 km/h (0 Bft)
24.05.2013 03:16 2,8 C 1,8 C 95 % 1010,2 hPa 0,0 l/m 0 min 0 min 0,0 UV-I 0 W/m 0,0 km/h (0 Bft)
24.05.2013 03:18 2,7 C 1,8 C 95 % 1010,2 hPa 0,0 l/m 0 min 0 min 0,0 UV-I 0 W/m 0,0 km/h (0 Bft)
24.05.2013 03:20 2,7 C 1,8 C 95 % 1010,3 hPa 0,0 l/m 0 min 0 min 0,0 UV-I 0 W/m 0,0 km/h (0 Bft)
24.05.2013 03:22 2,7 C 1,8 C 95 % 1010,2 hPa 0,0 l/m 0 min 0 min 0,0 UV-I 0 W/m 7,7 km/h (2 Bft)
24.05.2013 03:24 2,7 C 1,8 C 95 % 1010,2 hPa 0,0 l/m 0 min 0 min 0,0 UV-I 0 W/m 0,0 km/h (0 Bft)
24.05.2013 03:26 2,7 C 1,8 C 95 % 1010,2 hPa 0,0 l/m 0 min 0 min 0,0 UV-I 0 W/m 0,0 km/h (0 Bft)
24.05.2013 03:28 2,7 C 1,8 C 95 % 1010,2 hPa 0,0 l/m 0 min 0 min 0,0 UV-I 0 W/m 2,6 km/h (1 Bft)
24.05.2013 03:30 2,7 C 1,8 C 95 % 1010,2 hPa 0,0 l/m 0 min 0 min 0,0 UV-I 0 W/m 0,0 km/h (0 Bft)
24.05.2013 03:32 2,7 C 1,8 C 95 % 1010,2 hPa 0,0 l/m 0 min 0 min 0,0 UV-I 0 W/m 0,0 km/h (0 Bft)
24.05.2013 03:34 2,7 C 1,8 C 95 % 1010,2 hPa 0,0 l/m 0 min 0 min 0,0 UV-I 0 W/m 2,6 km/h (1 Bft)
24.05.2013 03:36 2,7 C 1,8 C 95 % 1010,1 hPa 0,0 l/m 0 min 0 min 0,0 UV-I 0 W/m 0,0 km/h (0 Bft)
24.05.2013 03:38 2,7 C 1,8 C 95 % 1010,1 hPa 0,0 l/m 0 min 0 min 0,0 UV-I 0 W/m 0,0 km/h (0 Bft)
24.05.2013 03:40 2,6 C 1,8 C 95 % 1010,2 hPa 0,0 l/m 0 min 0 min 0,0 UV-I 0 W/m 0,0 km/h (0 Bft)
24.05.2013 03:42 2,6 C 1,8 C 95 % 1010,2 hPa 0,0 l/m 0 min 0 min 0,0 UV-I 0 W/m 0,0 km/h (0 Bft)
24.05.2013 03:44 2,6 C 1,8 C 95 % 1010,1 hPa 0,0 l/m 0 min 0 min 0,0 UV-I 0 W/m 0,0 km/h (0 Bft)
24.05.2013 03:46 2,6 C 1,8 C 95 % 1010,1 hPa 0,0 l/m 0 min 0 min 0,0 UV-I 0 W/m 2,6 km/h (1 Bft)
24.05.2013 03:48 2,6 C 1,8 C 95 % 1010,1 hPa 0,0 l/m 0 min 0 min 0,0 UV-I 0 W/m 0,0 km/h (0 Bft)
24.05.2013 03:50 2,6 C 1,8 C 95 % 1010,1 hPa 0,0 l/m 0 min 0 min 0,0 UV-I 0 W/m 5,1 km/h (1 Bft)
24.05.2013 03:52 2,6 C 1,8 C 95 % 1010,1 hPa 0,0 l/m 0 min 0 min 0,0 UV-I 0 W/m 7,7 km/h (2 Bft)
24.05.2013 03:54 2,6 C 1,8 C 95 % 1010,2 hPa 0,0 l/m 0 min 0 min 0,0 UV-I 0 W/m 0,0 km/h (0 Bft)
24.05.2013 03:56 2,6 C 1,8 C 95 % 1010,1 hPa 0,0 l/m 0 min 0 min 0,0 UV-I 0 W/m 0,0 km/h (0 Bft)
24.05.2013 03:58 2,6 C 1,8 C 95 % 1010,1 hPa 0,0 l/m 0 min 0 min 0,0 UV-I 0 W/m 2,6 km/h (1 Bft)
24.05.2013 04:00 2,6 C 1,8 C 95 % 1010,1 hPa 0,0 l/m 0 min 0 min 0,0 UV-I 0 W/m 0,0 km/h (0 Bft)
24.05.2013 04:02 2,6 C 1,8 C 95 % 1010,1 hPa 0,0 l/m 0 min 0 min 0,0 UV-I 0 W/m 0,0 km/h (0 Bft)
24.05.2013 04:04 2,6 C 1,8 C 95 % 1010,1 hPa 0,0 l/m 0 min 0 min 0,0 UV-I 0 W/m 0,0 km/h (0 Bft)
24.05.2013 04:06 2,6 C 1,8 C 95 % 1010,1 hPa 0,0 l/m 0 min 0 min 0,0 UV-I 0 W/m 0,0 km/h (0 Bft)
24.05.2013 04:08 2,6 C 1,8 C 95 % 1010,0 hPa 0,0 l/m 0 min 0 min 0,0 UV-I 0 W/m 2,6 km/h (1 Bft)
24.05.2013 04:10 2,6 C 1,8 C 95 % 1010,0 hPa 0,0 l/m 0 min 0 min 0,0 UV-I 0 W/m 7,7 km/h (2 Bft)
24.05.2013 04:12 2,6 C 1,8 C 95 % 1010,0 hPa 0,0 l/m 0 min 0 min 0,0 UV-I 0 W/m 10,3 km/h (2 Bft)
24.05.2013 04:14 2,6 C 1,8 C 95 % 1009,9 hPa 0,0 l/m 0 min 0 min 0,0 UV-I 0 W/m 0,0 km/h (0 Bft)
24.05.2013 04:16 2,6 C 1,8 C 95 % 1010,0 hPa 0,0 l/m 0 min 0 min 0,0 UV-I 0 W/m 0,0 km/h (0 Bft)
24.05.2013 04:18 2,6 C 1,8 C 95 % 1010,0 hPa 0,0 l/m 0 min 0 min 0,0 UV-I 0 W/m 5,1 km/h (1 Bft)
24.05.2013 04:20 2,6 C 1,8 C 95 % 1009,9 hPa 0,0 l/m 0 min 0 min 0,0 UV-I 0 W/m 5,1 km/h (1 Bft)
24.05.2013 04:22 2,5 C 1,8 C 95 % 1010,0 hPa 0,0 l/m 0 min 0 min 0,0 UV-I 0 W/m 0,0 km/h (0 Bft)
24.05.2013 04:24 2,5 C 1,8 C 96 % 1010,0 hPa 0,0 l/m 0 min 0 min 0,0 UV-I 0 W/m 2,6 km/h (1 Bft)
24.05.2013 04:26 2,5 C 1,8 C 96 % 1010,0 hPa 0,0 l/m 0 min 0 min 0,0 UV-I 0 W/m 0,0 km/h (0 Bft)
24.05.2013 04:28 2,5 C 1,8 C 96 % 1010,0 hPa 0,0 l/m 0 min 0 min 0,0 UV-I 0 W/m 0,0 km/h (0 Bft)
24.05.2013 04:30 2,5 C 1,8 C 96 % 1010,0 hPa 0,0 l/m 0 min 0 min 0,0 UV-I 0 W/m 0,0 km/h (0 Bft)
24.05.2013 04:32 2,5 C 1,8 C 96 % 1010,0 hPa 0,0 l/m 0 min 0 min 0,0 UV-I 0 W/m 0,0 km/h (0 Bft)
24.05.2013 04:34 2,5 C 1,8 C 96 % 1010,0 hPa 0,0 l/m 0 min 0 min 0,0 UV-I 0 W/m 0,0 km/h (0 Bft)
24.05.2013 04:36 2,4 C 1,8 C 96 % 1010,0 hPa 0,0 l/m 0 min 0 min 0,0 UV-I 0 W/m 5,1 km/h (1 Bft)
24.05.2013 04:38 2,4 C 1,8 C 96 % 1010,0 hPa 0,0 l/m 0 min 0 min 0,0 UV-I 0 W/m 0,0 km/h (0 Bft)
24.05.2013 04:40 2,4 C 1,8 C 96 % 1010,0 hPa 0,0 l/m 0 min 0 min 0,0 UV-I 0 W/m 0,0 km/h (0 Bft)
24.05.2013 04:42 2,4 C 1,8 C 96 % 1010,0 hPa 0,0 l/m 0 min 0 min 0,0 UV-I 0 W/m 0,0 km/h (0 Bft)
24.05.2013 04:44 2,4 C 1,8 C 96 % 1010,0 hPa 0,0 l/m 0 min 0 min 0,0 UV-I 0 W/m 0,0 km/h (0 Bft)
24.05.2013 04:46 2,4 C 1,8 C 96 % 1010,0 hPa 0,0 l/m 0 min 0 min 0,0 UV-I 0 W/m 2,6 km/h (1 Bft)
24.05.2013 04:48 2,4 C 1,8 C 96 % 1010,0 hPa 0,0 l/m 0 min 0 min 0,0 UV-I 0 W/m 0,0 km/h (0 Bft)
24.05.2013 04:50 2,3 C 1,8 C 96 % 1010,1 hPa 0,0 l/m 0 min 0 min 0,0 UV-I 0 W/m 0,0 km/h (0 Bft)
24.05.2013 04:52 2,3 C 1,8 C 96 % 1010,0 hPa 0,0 l/m 0 min 0 min 0,0 UV-I 0 W/m 0,0 km/h (0 Bft)
24.05.2013 04:54 2,3 C 1,8 C 96 % 1010,0 hPa 0,0 l/m 0 min 0 min 0,0 UV-I 0 W/m 0,0 km/h (0 Bft)
24.05.2013 04:56 2,3 C 1,8 C 96 % 1010,0 hPa 0,0 l/m 0 min 0 min 0,0 UV-I 0 W/m 0,0 km/h (0 Bft)
24.05.2013 04:58 2,3 C 1,8 C 96 % 1010,0 hPa 0,0 l/m 0 min 0 min 0,0 UV-I 0 W/m 0,0 km/h (0 Bft)
24.05.2013 05:00 2,3 C 1,8 C 96 % 1010,0 hPa 0,0 l/m 0 min 0 min 0,0 UV-I 0 W/m 0,0 km/h (0 Bft)
24.05.2013 05:02 2,3 C 1,8 C 96 % 1010,0 hPa 0,0 l/m 0 min 0 min 0,0 UV-I 0 W/m 5,1 km/h (1 Bft)
24.05.2013 05:04 2,3 C 1,8 C 96 % 1010,0 hPa 0,0 l/m 0 min 0 min 0,0 UV-I 0 W/m 0,0 km/h (0 Bft)
24.05.2013 05:06 2,3 C 1,8 C 96 % 1010,0 hPa 0,0 l/m 0 min 0 min 0,0 UV-I 0 W/m 0,0 km/h (0 Bft)
24.05.2013 05:08 2,3 C 1,8 C 96 % 1010,0 hPa 0,0 l/m 0 min 0 min 0,0 UV-I 0 W/m 0,0 km/h (0 Bft)
24.05.2013 05:10 2,3 C 1,2 C 96 % 1010,1 hPa 0,0 l/m 0 min 0 min 0,0 UV-I 0 W/m 0,0 km/h (0 Bft)
24.05.2013 05:12 2,3 C 1,8 C 96 % 1010,0 hPa 0,0 l/m 0 min 0 min 0,0 UV-I 0 W/m 7,7 km/h (2 Bft)
24.05.2013 05:14 2,2 C 1,8 C 96 % 1010,0 hPa 0,0 l/m 0 min 0 min 0,0 UV-I 0 W/m 0,0 km/h (0 Bft)
24.05.2013 05:16 2,2 C 1,8 C 96 % 1010,0 hPa 0,0 l/m 0 min 0 min 0,0 UV-I 0 W/m 0,0 km/h (0 Bft)
24.05.2013 05:18 2,2 C 1,2 C 96 % 1010,0 hPa 0,0 l/m 0 min 0 min 0,0 UV-I 0 W/m 0,0 km/h (0 Bft)
24.05.2013 05:20 2,2 C 1,2 C 96 % 1010,0 hPa 0,0 l/m 0 min 0 min 0,0 UV-I 0 W/m 0,0 km/h (0 Bft)
24.05.2013 05:22 2,2 C 1,2 C 96 % 1010,0 hPa 0,0 l/m 0 min 0 min 0,0 UV-I 0 W/m 0,0 km/h (0 Bft)
24.05.2013 05:24 2,2 C 1,2 C 96 % 1010,0 hPa 0,0 l/m 0 min 0 min 0,0 UV-I 0 W/m 0,0 km/h (0 Bft)
24.05.2013 05:26 2,2 C 1,8 C 96 % 1010,1 hPa 0,0 l/m 0 min 0 min 0,0 UV-I 0 W/m 0,0 km/h (0 Bft)
24.05.2013 05:28 2,2 C 1,2 C 96 % 1010,1 hPa 0,0 l/m 0 min 0 min 0,0 UV-I 0 W/m 0,0 km/h (0 Bft)
24.05.2013 05:30 2,2 C 1,2 C 96 % 1010,1 hPa 0,0 l/m 0 min 0 min 0,0 UV-I 0 W/m 0,0 km/h (0 Bft)
24.05.2013 05:32 2,2 C 1,2 C 96 % 1010,1 hPa 0,0 l/m 0 min 0 min 0,0 UV-I 5 W/m 0,0 km/h (0 Bft)
24.05.2013 05:34 2,2 C 1,2 C 96 % 1010,1 hPa 0,0 l/m 0 min 0 min 0,0 UV-I 5 W/m 0,0 km/h (0 Bft)
24.05.2013 05:36 2,2 C 1,2 C 96 % 1010,1 hPa 0,0 l/m 0 min 0 min 0,0 UV-I 5 W/m 0,0 km/h (0 Bft)
24.05.2013 05:38 2,2 C 1,2 C 96 % 1010,2 hPa 0,0 l/m 0 min 0 min 0,0 UV-I 5 W/m 0,0 km/h (0 Bft)
24.05.2013 05:40 2,2 C 1,2 C 96 % 1010,1 hPa 0,0 l/m 0 min 0 min 0,0 UV-I 7 W/m 0,0 km/h (0 Bft)
24.05.2013 05:42 2,2 C 1,2 C 96 % 1010,1 hPa 0,0 l/m 0 min 0 min 0,0 UV-I 7 W/m 0,0 km/h (0 Bft)
24.05.2013 05:44 2,2 C 1,2 C 96 % 1010,2 hPa 0,0 l/m 0 min 0 min 0,0 UV-I 7 W/m 0,0 km/h (0 Bft)
24.05.2013 05:46 2,2 C 1,2 C 96 % 1010,2 hPa 0,0 l/m 0 min 0 min 0,0 UV-I 7 W/m 2,6 km/h (1 Bft)
24.05.2013 05:48 2,2 C 1,2 C 96 % 1010,2 hPa 0,0 l/m 0 min 0 min 0,0 UV-I 9 W/m 0,0 km/h (0 Bft)
24.05.2013 05:50 2,2 C 1,2 C 96 % 1010,2 hPa 0,0 l/m 0 min 0 min 0,0 UV-I 9 W/m 0,0 km/h (0 Bft)
24.05.2013 05:52 2,2 C 1,2 C 96 % 1010,1 hPa 0,0 l/m 0 min 0 min 0,0 UV-I 11 W/m 0,0 km/h (0 Bft)
24.05.2013 05:54 2,2 C 1,2 C 96 % 1010,2 hPa 0,0 l/m 0 min 0 min 0,0 UV-I 11 W/m 0,0 km/h (0 Bft)
24.05.2013 05:56 2,2 C 1,2 C 96 % 1010,2 hPa 0,0 l/m 0 min 0 min 0,0 UV-I 12 W/m 0,0 km/h (0 Bft)
24.05.2013 05:58 2,2 C 1,2 C 96 % 1010,2 hPa 0,0 l/m 0 min 0 min 0,0 UV-I 12 W/m 0,0 km/h (0 Bft)
24.05.2013 06:00 2,2 C 1,8 C 96 % 1010,2 hPa 0,0 l/m 0 min 0 min 0,0 UV-I 14 W/m 0,0 km/h (0 Bft)
24.05.2013 06:02 2,2 C 1,8 C 96 % 1010,2 hPa 0,0 l/m 0 min 0 min 0,0 UV-I 14 W/m 0,0 km/h (0 Bft)
24.05.2013 06:04 2,2 C 1,8 C 96 % 1010,2 hPa 0,0 l/m 0 min 0 min 0,0 UV-I 18 W/m 5,1 km/h (1 Bft)
24.05.2013 06:06 2,2 C 1,8 C 96 % 1010,2 hPa 0,0 l/m 0 min 0 min 0,0 UV-I 19 W/m 0,0 km/h (0 Bft)
24.05.2013 06:08 2,2 C 1,8 C 96 % 1010,2 hPa 0,0 l/m 0 min 0 min 0,0 UV-I 21 W/m 0,0 km/h (0 Bft)
24.05.2013 06:10 2,2 C 1,8 C 96 % 1010,2 hPa 0,0 l/m 0 min 0 min 0,0 UV-I 25 W/m 0,0 km/h (0 Bft)
24.05.2013 06:12 2,3 C 1,8 C 96 % 1010,2 hPa 0,0 l/m 0 min 0 min 0,0 UV-I 30 W/m 2,6 km/h (1 Bft)
24.05.2013 06:14 2,3 C 1,8 C 96 % 1010,3 hPa 0,0 l/m 0 min 0 min 0,0 UV-I 33 W/m 0,0 km/h (0 Bft)
24.05.2013 06:16 2,3 C 2,3 C 96 % 1010,3 hPa 0,0 l/m 0 min 0 min 0,0 UV-I 37 W/m 0,0 km/h (0 Bft)
24.05.2013 06:18 2,3 C 2,3 C 96 % 1010,3 hPa 0,0 l/m 0 min 0 min 0,0 UV-I 40 W/m 7,7 km/h (2 Bft)
24.05.2013 06:20 2,3 C 2,3 C 96 % 1010,3 hPa 0,0 l/m 0 min 0 min 0,0 UV-I 44 W/m 0,0 km/h (0 Bft)
24.05.2013 06:22 2,3 C 2,3 C 96 % 1010,3 hPa 0,0 l/m 0 min 0 min 0,0 UV-I 49 W/m 0,0 km/h (0 Bft)
24.05.2013 06:24 2,4 C 2,3 C 96 % 1010,2 hPa 0,0 l/m 0 min 0 min 0,0 UV-I 53 W/m 0,0 km/h (0 Bft)
24.05.2013 06:26 2,4 C 2,3 C 96 % 1010,3 hPa 0,0 l/m 0 min 0 min 0,0 UV-I 56 W/m 0,0 km/h (0 Bft)
24.05.2013 06:28 2,4 C 2,9 C 97 % 1010,3 hPa 0,0 l/m 0 min 0 min 0,0 UV-I 63 W/m 0,0 km/h (0 Bft)
24.05.2013 06:30 2,5 C 2,9 C 96 % 1010,3 hPa 0,0 l/m 0 min 0 min 0,0 UV-I 65 W/m 0,0 km/h (0 Bft)
24.05.2013 06:32 2,6 C 2,9 C 96 % 1010,3 hPa 0,0 l/m 0 min 0 min 0,0 UV-I 62 W/m 0,0 km/h (0 Bft)
24.05.2013 06:34 2,6 C 2,9 C 97 % 1010,4 hPa 0,0 l/m 0 min 0 min 0,0 UV-I 51 W/m 7,7 km/h (2 Bft)
24.05.2013 06:36 2,7 C 2,9 C 97 % 1010,3 hPa 0,0 l/m 0 min 0 min 0,0 UV-I 46 W/m 5,1 km/h (1 Bft)
24.05.2013 06:38 2,7 C 2,9 C 97 % 1010,3 hPa 0,0 l/m 0 min 0 min 0,0 UV-I 44 W/m 5,1 km/h (1 Bft)
24.05.2013 06:40 2,8 C 2,9 C 97 % 1010,4 hPa 0,0 l/m 0 min 0 min 0,0 UV-I 49 W/m 7,7 km/h (2 Bft)
24.05.2013 06:42 2,8 C 3,4 C 97 % 1010,4 hPa 0,0 l/m 0 min 0 min 0,0 UV-I 53 W/m 5,1 km/h (1 Bft)
24.05.2013 06:44 2,9 C 3,4 C 97 % 1010,4 hPa 0,0 l/m 0 min 0 min 0,0 UV-I 53 W/m 0,0 km/h (0 Bft)
24.05.2013 06:46 2,9 C 3,4 C 97 % 1010,3 hPa 0,0 l/m 0 min 0 min 0,0 UV-I 53 W/m 0,0 km/h (0 Bft)
24.05.2013 06:48 3,0 C 3,4 C 97 % 1010,4 hPa 0,0 l/m 0 min 0 min 0,0 UV-I 51 W/m 0,0 km/h (0 Bft)
24.05.2013 06:50 3,1 C 3,4 C 97 % 1010,4 hPa 0,0 l/m 0 min 0 min 0,0 UV-I 53 W/m 0,0 km/h (0 Bft)
24.05.2013 06:52 3,2 C 3,4 C 97 % 1010,4 hPa 0,0 l/m 0 min 0 min 0,0 UV-I 54 W/m 2,6 km/h (1 Bft)
24.05.2013 06:54 3,2 C 3,4 C 97 % 1010,4 hPa 0,0 l/m 0 min 0 min 0,0 UV-I 54 W/m 0,0 km/h (0 Bft)
24.05.2013 06:56 3,2 C 4,0 C 97 % 1010,5 hPa 0,0 l/m 0 min 0 min 0,0 UV-I 54 W/m 0,0 km/h (0 Bft)
24.05.2013 06:58 3,3 C 4,0 C 97 % 1010,4 hPa 0,0 l/m 0 min 0 min 0,0 UV-I 56 W/m 7,7 km/h (2 Bft)
24.05.2013 07:00 3,3 C 4,0 C 97 % 1010,5 hPa 0,0 l/m 0 min 0 min 0,0 UV-I 54 W/m 0,0 km/h (0 Bft)
24.05.2013 07:02 3,3 C 4,0 C 97 % 1010,5 hPa 0,0 l/m 0 min 0 min 0,0 UV-I 53 W/m 5,1 km/h (1 Bft)
24.05.2013 07:04 3,4 C 4,0 C 97 % 1010,5 hPa 0,0 l/m 0 min 0 min 0,0 UV-I 53 W/m 0,0 km/h (0 Bft)
24.05.2013 07:06 3,4 C 4,0 C 97 % 1010,6 hPa 0,0 l/m 0 min 0 min 0,0 UV-I 53 W/m 0,0 km/h (0 Bft)
24.05.2013 07:08 3,5 C 4,0 C 97 % 1010,6 hPa 0,0 l/m 0 min 0 min 0,0 UV-I 53 W/m 0,0 km/h (0 Bft)
24.05.2013 07:10 3,6 C 4,0 C 97 % 1010,6 hPa 0,0 l/m 0 min 0 min 0,0 UV-I 56 W/m 0,0 km/h (0 Bft)
24.05.2013 07:12 3,6 C 4,0 C 97 % 1010,6 hPa 0,0 l/m 0 min 0 min 0,0 UV-I 60 W/m 0,0 km/h (0 Bft)
24.05.2013 07:14 3,6 C 4,0 C 97 % 1010,6 hPa 0,0 l/m 0 min 0 min 0,0 UV-I 62 W/m 0,0 km/h (0 Bft)
24.05.2013 07:16 3,7 C 4,0 C 97 % 1010,6 hPa 0,0 l/m 0 min 0 min 0,0 UV-I 62 W/m 0,0 km/h (0 Bft)
24.05.2013 07:18 3,7 C 4,0 C 97 % 1010,6 hPa 0,0 l/m 0 min 0 min 0,0 UV-I 65 W/m 2,6 km/h (1 Bft)
24.05.2013 07:20 3,7 C 4,0 C 97 % 1010,6 hPa 0,0 l/m 0 min 0 min 0,0 UV-I 74 W/m 0,0 km/h (0 Bft)
24.05.2013 07:22 3,7 C 4,0 C 97 % 1010,6 hPa 0,0 l/m 0 min 0 min 0,0 UV-I 77 W/m 0,0 km/h (0 Bft)
24.05.2013 07:24 3,8 C 4,0 C 97 % 1010,6 hPa 0,0 l/m 0 min 0 min 0,0 UV-I 81 W/m 0,0 km/h (0 Bft)
24.05.2013 07:26 3,8 C 4,0 C 97 % 1010,6 hPa 0,0 l/m 0 min 0 min 0,0 UV-I 86 W/m 7,7 km/h (2 Bft)
24.05.2013 07:28 3,8 C 4,6 C 97 % 1010,6 hPa 0,0 l/m 0 min 0 min 0,0 UV-I 93 W/m 0,0 km/h (0 Bft)
24.05.2013 07:30 3,8 C 4,6 C 97 % 1010,6 hPa 0,0 l/m 0 min 0 min 0,0 UV-I 98 W/m 0,0 km/h (0 Bft)
24.05.2013 07:32 3,9 C 4,6 C 97 % 1010,6 hPa 0,0 l/m 0 min 0 min 0,0 UV-I 105 W/m 0,0 km/h (0 Bft)
24.05.2013 07:34 3,9 C 4,6 C 97 % 1010,6 hPa 0,0 l/m 0 min 0 min 0,0 UV-I 111 W/m 0,0 km/h (0 Bft)
24.05.2013 07:36 4,0 C 4,6 C 97 % 1010,5 hPa 0,0 l/m 0 min 0 min 0,0 UV-I 114 W/m 7,7 km/h (2 Bft)
24.05.2013 07:38 4,1 C 4,6 C 97 % 1010,5 hPa 0,0 l/m 0 min 0 min 0,0 UV-I 118 W/m 5,1 km/h (1 Bft)
24.05.2013 07:40 4,1 C 4,6 C 97 % 1010,5 hPa 0,0 l/m 0 min 0 min 0,0 UV-I 121 W/m 0,0 km/h (0 Bft)
24.05.2013 07:42 4,1 C 5,1 C 97 % 1010,5 hPa 0,0 l/m 0 min 0 min 0,0 UV-I 128 W/m 0,0 km/h (0 Bft)
24.05.2013 07:44 4,2 C 5,1 C 97 % 1010,5 hPa 0,0 l/m 0 min 0 min 0,0 UV-I 132 W/m 7,7 km/h (2 Bft)
24.05.2013 07:46 4,2 C 5,1 C 97 % 1010,5 hPa 0,0 l/m 0 min 0 min 0,0 UV-I 125 W/m 0,0 km/h (0 Bft)
24.05.2013 07:48 4,3 C 5,1 C 97 % 1010,6 hPa 0,0 l/m 0 min 0 min 0,0 UV-I 121 W/m 2,6 km/h (1 Bft)
24.05.2013 07:50 4,3 C 5,1 C 97 % 1010,6 hPa 0,0 l/m 0 min 0 min 0,0 UV-I 123 W/m 0,0 km/h (0 Bft)
24.05.2013 07:52 4,4 C 5,1 C 97 % 1010,6 hPa 0,0 l/m 0 min 0 min 0,0 UV-I 127 W/m 0,0 km/h (0 Bft)
24.05.2013 07:54 4,4 C 5,1 C 97 % 1010,6 hPa 0,0 l/m 0 min 0 min 0,0 UV-I 128 W/m 0,0 km/h (0 Bft)
24.05.2013 07:56 4,4 C 5,1 C 97 % 1010,6 hPa 0,0 l/m 0 min 0 min 0,0 UV-I 132 W/m 0,0 km/h (0 Bft)
24.05.2013 07:58 4,5 C 5,1 C 97 % 1010,6 hPa 0,0 l/m 0 min 0 min 0,0 UV-I 134 W/m 0,0 km/h (0 Bft)
24.05.2013 08:00 4,6 C 5,7 C 97 % 1010,6 hPa 0,0 l/m 0 min 0 min 0,0 UV-I 134 W/m 7,7 km/h (2 Bft)
24.05.2013 08:02 4,6 C 5,7 C 98 % 1010,6 hPa 0,0 l/m 0 min 0 min 0,0 UV-I 134 W/m 0,0 km/h (0 Bft)
24.05.2013 08:04 4,7 C 5,7 C 98 % 1010,6 hPa 0,0 l/m 0 min 0 min 0,0 UV-I 130 W/m 5,1 km/h (1 Bft)
24.05.2013 08:06 4,7 C 5,7 C 97 % 1010,6 hPa 0,0 l/m 0 min 0 min 0,0 UV-I 127 W/m 7,7 km/h (2 Bft)
24.05.2013 08:08 4,8 C 5,7 C 97 % 1010,6 hPa 0,0 l/m 0 min 0 min 0,0 UV-I 125 W/m 0,0 km/h (0 Bft)
24.05.2013 08:10 4,8 C 5,7 C 97 % 1010,6 hPa 0,0 l/m 0 min 0 min 0,0 UV-I 125 W/m 0,0 km/h (0 Bft)
24.05.2013 08:12 4,8 C 5,7 C 97 % 1010,6 hPa 0,0 l/m 0 min 0 min 0,0 UV-I 128 W/m 7,7 km/h (2 Bft)
24.05.2013 08:14 4,9 C 5,7 C 97 % 1010,6 hPa 0,0 l/m 0 min 0 min 0,0 UV-I 134 W/m 7,7 km/h (2 Bft)
24.05.2013 08:16 4,9 C 5,1 C 98 % 1010,6 hPa 0,0 l/m 0 min 0 min 0,0 UV-I 141 W/m 2,6 km/h (1 Bft)
24.05.2013 08:18 4,9 C 5,7 C 97 % 1010,6 hPa 0,0 l/m 0 min 0 min 0,0 UV-I 149 W/m 0,0 km/h (0 Bft)
24.05.2013 08:20 4,9 C 5,7 C 97 % 1010,6 hPa 0,0 l/m 0 min 0 min 0,0 UV-I 169 W/m 10,3 km/h (2 Bft)
24.05.2013 08:22 4,9 C 5,7 C 97 % 1010,6 hPa 0,0 l/m 0 min 0 min 0,0 UV-I 179 W/m 5,1 km/h (1 Bft)
24.05.2013 08:24 5,0 C 5,7 C 97 % 1010,6 hPa 0,0 l/m 0 min 0 min 0,0 UV-I 186 W/m 0,0 km/h (0 Bft)
24.05.2013 08:26 5,1 C 6,2 C 97 % 1010,5 hPa 0,0 l/m 0 min 0 min 0,0 UV-I 197 W/m 0,0 km/h (0 Bft)
24.05.2013 08:28 5,1 C 6,2 C 97 % 1010,6 hPa 0,0 l/m 0 min 0 min 0,0 UV-I 202 W/m 0,0 km/h (0 Bft)
24.05.2013 08:30 5,2 C 6,2 C 97 % 1010,6 hPa 0,0 l/m 0 min 0 min 0,0 UV-I 214 W/m 0,0 km/h (0 Bft)
24.05.2013 08:32 5,2 C 6,2 C 97 % 1010,6 hPa 0,0 l/m 0 min 0 min 0,0 UV-I 220 W/m 2,6 km/h (1 Bft)
24.05.2013 08:34 5,3 C 6,2 C 97 % 1010,7 hPa 0,0 l/m 0 min 0 min 0,0 UV-I 229 W/m 0,0 km/h (0 Bft)
24.05.2013 08:36 5,3 C 6,2 C 97 % 1010,6 hPa 0,0 l/m 2 min 0 min 0,0 UV-I 241 W/m 0,0 km/h (0 Bft)
24.05.2013 08:38 5,4 C 6,8 C 97 % 1010,6 hPa 0,0 l/m 0 min 0 min 0,0 UV-I 241 W/m 0,0 km/h (0 Bft)
24.05.2013 08:40 5,4 C 6,8 C 97 % 1010,7 hPa 0,0 l/m 2 min 0 min 0,0 UV-I 260 W/m 5,1 km/h (1 Bft)
24.05.2013 08:42 5,6 C 6,8 C 97 % 1010,6 hPa 0,0 l/m 2 min 0 min 0,0 UV-I 330 W/m 0,0 km/h (0 Bft)
24.05.2013 08:44 5,7 C 6,8 C 97 % 1010,6 hPa 0,0 l/m 2 min 0 min 0,5 UV-I 399 W/m 0,0 km/h (0 Bft)
24.05.2013 08:46 5,8 C 7,3 C 97 % 1010,6 hPa 0,0 l/m 2 min 0 min 0,0 UV-I 403 W/m 0,0 km/h (0 Bft)
24.05.2013 08:48 5,9 C 7,3 C 97 % 1010,6 hPa 0,0 l/m 0 min 0 min 0,0 UV-I 221 W/m 0,0 km/h (0 Bft)
24.05.2013 08:50 6,1 C 7,3 C 97 % 1010,6 hPa 0,0 l/m 2 min 0 min 0,0 UV-I 313 W/m 0,0 km/h (0 Bft)
24.05.2013 08:52 6,2 C 6,8 C 97 % 1010,6 hPa 0,0 l/m 2 min 0 min 0,5 UV-I 461 W/m 12,9 km/h (3 Bft)
24.05.2013 08:54 6,2 C 6,8 C 97 % 1010,6 hPa 0,0 l/m 2 min 0 min 0,0 UV-I 392 W/m 12,9 km/h (3 Bft)
24.05.2013 08:56 6,3 C 6,2 C 97 % 1010,6 hPa 0,0 l/m 2 min 0 min 0,5 UV-I 392 W/m 5,1 km/h (1 Bft)
24.05.2013 08:58 6,4 C 6,2 C 96 % 1010,6 hPa 0,0 l/m 2 min 0 min 0,5 UV-I 425 W/m 2,6 km/h (1 Bft)
24.05.2013 09:00 6,5 C 6,2 C 96 % 1010,6 hPa 0,0 l/m 2 min 0 min 0,5 UV-I 439 W/m 7,7 km/h (2 Bft)
24.05.2013 09:02 6,6 C 6,2 C 96 % 1010,6 hPa 0,0 l/m 2 min 0 min 0,5 UV-I 427 W/m 7,7 km/h (2 Bft)
24.05.2013 09:04 6,7 C 6,2 C 96 % 1010,6 hPa 0,0 l/m 2 min 0 min 0,6 UV-I 443 W/m 2,6 km/h (1 Bft)
24.05.2013 09:06 6,8 C 6,2 C 95 % 1010,6 hPa 0,0 l/m 0 min 0 min 0,5 UV-I 162 W/m 2,6 km/h (1 Bft)
24.05.2013 09:08 6,9 C 6,2 C 95 % 1010,6 hPa 0,0 l/m 2 min 0 min 0,6 UV-I 454 W/m 2,6 km/h (1 Bft)
24.05.2013 09:10 7,1 C 6,2 C 94 % 1010,6 hPa 0,0 l/m 2 min 0 min 0,7 UV-I 466 W/m 5,1 km/h (1 Bft)
24.05.2013 09:12 7,1 C 6,2 C 94 % 1010,6 hPa 0,0 l/m 2 min 0 min 0,7 UV-I 462 W/m 7,7 km/h (2 Bft)
24.05.2013 09:14 7,2 C 6,2 C 93 % 1010,5 hPa 0,0 l/m 2 min 0 min 0,0 UV-I 462 W/m 0,0 km/h (0 Bft)
24.05.2013 09:16 7,3 C 6,2 C 93 % 1010,5 hPa 0,0 l/m 2 min 0 min 0,8 UV-I 473 W/m 2,6 km/h (1 Bft)
24.05.2013 09:18 7,4 C 6,8 C 92 % 1010,5 hPa 0,0 l/m 2 min 0 min 0,8 UV-I 490 W/m 7,7 km/h (2 Bft)
24.05.2013 09:20 7,5 C 6,8 C 91 % 1010,5 hPa 0,0 l/m 2 min 0 min 0,9 UV-I 510 W/m 0,0 km/h (0 Bft)
24.05.2013 09:22 7,7 C 6,8 C 90 % 1010,5 hPa 0,0 l/m 2 min 0 min 0,9 UV-I 520 W/m 0,0 km/h (0 Bft)
24.05.2013 09:24 7,8 C 6,8 C 90 % 1010,5 hPa 0,0 l/m 2 min 0 min 1,0 UV-I 534 W/m 2,6 km/h (1 Bft)
24.05.2013 09:26 7,9 C 7,3 C 89 % 1010,5 hPa 0,0 l/m 2 min 0 min 1,0 UV-I 541 W/m 2,6 km/h (1 Bft)
24.05.2013 09:28 8,1 C 7,3 C 88 % 1010,5 hPa 0,0 l/m 2 min 0 min 1,0 UV-I 543 W/m 7,7 km/h (2 Bft)
24.05.2013 09:30 8,2 C 7,3 C 87 % 1010,5 hPa 0,0 l/m 2 min 0 min 1,0 UV-I 577 W/m 12,9 km/h (3 Bft)
24.05.2013 09:32 8,2 C 7,3 C 87 % 1010,5 hPa 0,0 l/m 2 min 0 min 0,5 UV-I 577 W/m 7,7 km/h (2 Bft)
24.05.2013 09:34 8,3 C 7,3 C 86 % 1010,4 hPa 0,0 l/m 0 min 0 min 0,7 UV-I 190 W/m 10,3 km/h (2 Bft)
24.05.2013 09:36 8,3 C 7,9 C 86 % 1010,5 hPa 0,0 l/m 2 min 0 min 0,0 UV-I 615 W/m 10,3 km/h (2 Bft)
24.05.2013 09:38 8,4 C 7,9 C 85 % 1010,5 hPa 0,0 l/m 2 min 0 min 0,5 UV-I 615 W/m 2,6 km/h (1 Bft)
24.05.2013 09:40 8,4 C 7,9 C 85 % 1010,5 hPa 0,0 l/m 2 min 0 min 0,0 UV-I 615 W/m 0,0 km/h (0 Bft)
24.05.2013 09:42 8,4 C 7,9 C 84 % 1010,5 hPa 0,0 l/m 0 min 0 min 0,0 UV-I 165 W/m 10,3 km/h (2 Bft)
24.05.2013 09:44 8,4 C 7,3 C 83 % 1010,5 hPa 0,0 l/m 0 min 0 min 0,0 UV-I 179 W/m 5,1 km/h (1 Bft)
24.05.2013 09:46 8,4 C 7,3 C 83 % 1010,5 hPa 0,0 l/m 0 min 0 min 0,0 UV-I 207 W/m 7,7 km/h (2 Bft)
24.05.2013 09:48 8,3 C 7,3 C 82 % 1010,4 hPa 0,0 l/m 0 min 0 min 0,0 UV-I 255 W/m 7,7 km/h (2 Bft)
24.05.2013 09:50 8,3 C 9,0 C 82 % 1010,4 hPa 0,0 l/m 0 min 0 min 1,2 UV-I 272 W/m 2,6 km/h (1 Bft)
24.05.2013 09:52 8,4 C 10,7 C 83 % 1010,4 hPa 0,0 l/m 0 min 0 min 1,1 UV-I 272 W/m 10,3 km/h (2 Bft)
24.05.2013 09:54 8,5 C 11,8 C 83 % 1010,4 hPa 0,0 l/m 2 min 0 min 0,5 UV-I 703 W/m 0,0 km/h (0 Bft)
24.05.2013 09:56 8,6 C 10,7 C 82 % 1010,4 hPa 0,0 l/m 0 min 0 min 0,5 UV-I 250 W/m 7,7 km/h (2 Bft)
24.05.2013 09:58 8,6 C 10,7 C 81 % 1010,5 hPa 0,0 l/m 0 min 0 min 1,4 UV-I 255 W/m 5,1 km/h (1 Bft)
24.05.2013 10:00 8,6 C 9,6 C 80 % 1010,5 hPa 0,0 l/m 0 min 0 min 0,5 UV-I 213 W/m 10,3 km/h (2 Bft)
24.05.2013 10:02 8,6 C 9,0 C 80 % 1010,4 hPa 0,0 l/m 0 min 0 min 0,5 UV-I 195 W/m 5,1 km/h (1 Bft)
24.05.2013 10:04 8,6 C 9,0 C 80 % 1010,5 hPa 0,0 l/m 0 min 0 min 0,6 UV-I 193 W/m 2,6 km/h (1 Bft)
24.05.2013 10:06 8,6 C 11,8 C 80 % 1010,5 hPa 0,0 l/m 2 min 0 min 1,8 UV-I 742 W/m 0,0 km/h (0 Bft)
24.05.2013 10:08 8,7 C 14,0 C 80 % 1010,5 hPa 0,0 l/m 2 min 0 min 1,8 UV-I 726 W/m 2,6 km/h (1 Bft)
24.05.2013 10:10 8,8 C 15,1 C 81 % 1010,6 hPa 0,0 l/m 2 min 0 min 1,6 UV-I 747 W/m 7,7 km/h (2 Bft)
24.05.2013 10:12 8,8 C 12,9 C 80 % 1010,5 hPa 0,0 l/m 0 min 0 min 0,6 UV-I 171 W/m 12,9 km/h (3 Bft)
24.05.2013 10:14 8,9 C 10,7 C 78 % 1010,5 hPa 0,0 l/m 0 min 0 min 0,6 UV-I 160 W/m 0,0 km/h (0 Bft)
24.05.2013 10:16 8,9 C 9,6 C 77 % 1010,6 hPa 0,0 l/m 0 min 0 min 0,7 UV-I 178 W/m 2,6 km/h (1 Bft)
24.05.2013 10:18 8,8 C 9,0 C 77 % 1010,6 hPa 0,0 l/m 0 min 0 min 0,8 UV-I 167 W/m 7,7 km/h (2 Bft)
24.05.2013 10:20 8,8 C 11,8 C 77 % 1010,5 hPa 0,0 l/m 2 min 0 min 2,0 UV-I 754 W/m 15,4 km/h (3 Bft)
24.05.2013 10:22 8,9 C 12,9 C 77 % 1010,5 hPa 0,0 l/m 2 min 0 min 1,4 UV-I 754 W/m 5,1 km/h (1 Bft)
24.05.2013 10:24 9,0 C 15,1 C 77 % 1010,5 hPa 0,0 l/m 2 min 0 min 2,0 UV-I 701 W/m 10,3 km/h (2 Bft)
24.05.2013 10:26 9,1 C 15,7 C 77 % 1010,5 hPa 0,0 l/m 2 min 0 min 2,0 UV-I 700 W/m 10,3 km/h (2 Bft)
24.05.2013 10:28 9,2 C 16,2 C 77 % 1010,5 hPa 0,0 l/m 2 min 0 min 2,1 UV-I 714 W/m 10,3 km/h (2 Bft)
24.05.2013 10:30 9,3 C 16,8 C 77 % 1010,4 hPa 0,0 l/m 2 min 0 min 1,6 UV-I 710 W/m 5,1 km/h (1 Bft)
24.05.2013 10:32 9,4 C 15,7 C 77 % 1010,5 hPa 0,0 l/m 2 min 0 min 2,2 UV-I 710 W/m 7,7 km/h (2 Bft)
24.05.2013 10:34 9,6 C 16,8 C 76 % 1010,5 hPa 0,0 l/m 2 min 0 min 2,2 UV-I 717 W/m 10,3 km/h (2 Bft)
24.05.2013 10:36 9,7 C 16,8 C 76 % 1010,5 hPa 0,0 l/m 2 min 0 min 2,2 UV-I 737 W/m 10,3 km/h (2 Bft)
24.05.2013 10:38 9,8 C 17,3 C 75 % 1010,5 hPa 0,0 l/m 2 min 0 min 1,5 UV-I 747 W/m 10,3 km/h (2 Bft)
24.05.2013 10:40 10,0 C 18,4 C 75 % 1010,5 hPa 0,0 l/m 2 min 0 min 2,4 UV-I 777 W/m 0,0 km/h (0 Bft)
24.05.2013 10:42 10,2 C 18,4 C 76 % 1010,5 hPa 0,0 l/m 2 min 0 min 2,6 UV-I 868 W/m 12,9 km/h (3 Bft)
24.05.2013 10:44 10,3 C 17,9 C 75 % 1010,5 hPa 0,0 l/m 2 min 0 min 1,1 UV-I 891 W/m 7,7 km/h (2 Bft)
24.05.2013 10:46 10,5 C 18,4 C 75 % 1010,5 hPa 0,0 l/m 2 min 0 min 2,5 UV-I 914 W/m 10,3 km/h (2 Bft)
24.05.2013 10:48 10,8 C 19,0 C 76 % 1010,4 hPa 0,0 l/m 2 min 0 min 2,5 UV-I 932 W/m 2,6 km/h (1 Bft)
24.05.2013 10:50 10,9 C 17,3 C 72 % 1010,5 hPa 0,0 l/m 2 min 0 min 1,0 UV-I 932 W/m 5,1 km/h (1 Bft)
24.05.2013 10:52 11,0 C 15,7 C 70 % 1010,5 hPa 0,0 l/m 0 min 0 min 2,3 UV-I 371 W/m 2,6 km/h (1 Bft)
24.05.2013 10:54 11,1 C 15,7 C 69 % 1010,4 hPa 0,0 l/m 2 min 0 min 1,6 UV-I 898 W/m 5,1 km/h (1 Bft)
24.05.2013 10:56 11,2 C 16,8 C 68 % 1010,5 hPa 0,0 l/m 2 min 0 min 2,3 UV-I 877 W/m 10,3 km/h (2 Bft)
24.05.2013 10:58 11,2 C 15,7 C 66 % 1010,5 hPa 0,0 l/m 0 min 0 min 2,4 UV-I 374 W/m 5,1 km/h (1 Bft)
24.05.2013 11:00 11,3 C 16,2 C 67 % 1010,5 hPa 0,0 l/m 2 min 0 min 1,3 UV-I 954 W/m 5,1 km/h (1 Bft)
24.05.2013 11:02 11,4 C 16,8 C 66 % 1010,6 hPa 0,0 l/m 2 min 0 min 2,8 UV-I 951 W/m 10,3 km/h (2 Bft)
24.05.2013 11:04 11,3 C 14,0 C 63 % 1010,6 hPa 0,0 l/m 0 min 0 min 1,3 UV-I 320 W/m 12,9 km/h (3 Bft)
24.05.2013 11:06 11,3 C 14,0 C 62 % 1010,6 hPa 0,0 l/m 0 min 0 min 1,4 UV-I 320 W/m 15,4 km/h (3 Bft)
24.05.2013 11:08 11,2 C 12,9 C 63 % 1010,6 hPa 0,0 l/m 0 min 0 min 1,2 UV-I 320 W/m 5,1 km/h (1 Bft)
24.05.2013 11:10 11,1 C 11,8 C 63 % 1010,5 hPa 0,0 l/m 0 min 0 min 1,4 UV-I 329 W/m 0,0 km/h (0 Bft)
24.05.2013 11:12 11,1 C 15,1 C 66 % 1010,6 hPa 0,0 l/m 0 min 0 min 2,9 UV-I 329 W/m 10,3 km/h (2 Bft)
24.05.2013 11:14 11,1 C 16,2 C 66 % 1010,6 hPa 0,0 l/m 2 min 0 min 1,9 UV-I 889 W/m 10,3 km/h (2 Bft)
24.05.2013 11:16 11,1 C 14,0 C 65 % 1010,6 hPa 0,0 l/m 2 min 0 min 0,9 UV-I 889 W/m 15,4 km/h (3 Bft)
24.05.2013 11:18 11,1 C 12,3 C 66 % 1010,6 hPa 0,0 l/m 0 min 0 min 0,8 UV-I 278 W/m 5,1 km/h (1 Bft)
24.05.2013 11:20 11,0 C 11,8 C 66 % 1010,6 hPa 0,0 l/m 0 min 0 min 0,7 UV-I 244 W/m 5,1 km/h (1 Bft)
24.05.2013 11:22 10,9 C 11,2 C 66 % 1010,6 hPa 0,0 l/m 0 min 0 min 0,7 UV-I 236 W/m 2,6 km/h (1 Bft)
24.05.2013 11:24 10,9 C 11,8 C 68 % 1010,6 hPa 0,0 l/m 0 min 0 min 1,8 UV-I 262 W/m 2,6 km/h (1 Bft)
24.05.2013 11:26 10,9 C 12,3 C 69 % 1010,6 hPa 0,0 l/m 0 min 0 min 1,1 UV-I 232 W/m 0,0 km/h (0 Bft)
24.05.2013 11:28 10,9 C 11,8 C 67 % 1010,7 hPa 0,0 l/m 0 min 0 min 2,4 UV-I 230 W/m 2,6 km/h (1 Bft)
24.05.2013 11:30 10,8 C 11,2 C 66 % 1010,7 hPa 0,0 l/m 0 min 0 min 1,1 UV-I 218 W/m 10,3 km/h (2 Bft)
24.05.2013 11:32 10,8 C 10,7 C 66 % 1010,7 hPa 0,0 l/m 0 min 0 min 1,2 UV-I 214 W/m 5,1 km/h (1 Bft)
24.05.2013 11:34 10,8 C 10,7 C 66 % 1010,6 hPa 0,0 l/m 0 min 0 min 1,2 UV-I 257 W/m 2,6 km/h (1 Bft)
24.05.2013 11:36 10,7 C 12,9 C 67 % 1010,7 hPa 0,0 l/m 2 min 0 min 3,0 UV-I 946 W/m 0,0 km/h (0 Bft)
24.05.2013 11:38 10,8 C 14,6 C 70 % 1010,7 hPa 0,0 l/m 2 min 0 min 2,9 UV-I 958 W/m 15,4 km/h (3 Bft)
24.05.2013 11:40 11,2 C 15,1 C 69 % 1010,7 hPa 0,0 l/m 2 min 0 min 1,4 UV-I 967 W/m 10,3 km/h (2 Bft)
24.05.2013 11:42 11,2 C 14,0 C 65 % 1010,7 hPa 0,0 l/m 2 min 0 min 2,8 UV-I 967 W/m 10,3 km/h (2 Bft)
24.05.2013 11:44 11,0 C 14,6 C 66 % 1010,7 hPa 0,0 l/m 2 min 0 min 3,1 UV-I 940 W/m 7,7 km/h (2 Bft)
24.05.2013 11:46 11,0 C 15,7 C 67 % 1010,6 hPa 0,0 l/m 2 min 0 min 3,4 UV-I 1025 W/m 5,1 km/h (1 Bft)
24.05.2013 11:48 11,1 C 15,7 C 65 % 1010,7 hPa 0,0 l/m 2 min 0 min 1,8 UV-I 1025 W/m 5,1 km/h (1 Bft)
24.05.2013 11:50 10,9 C 15,7 C 65 % 1010,7 hPa 0,0 l/m 2 min 0 min 1,4 UV-I 1025 W/m 7,7 km/h (2 Bft)
24.05.2013 11:52 10,9 C 17,9 C 66 % 1010,7 hPa 0,0 l/m 2 min 0 min 3,3 UV-I 965 W/m 7,7 km/h (2 Bft)
24.05.2013 11:54 11,1 C 19,6 C 67 % 1010,7 hPa 0,0 l/m 2 min 0 min 3,4 UV-I 986 W/m 7,7 km/h (2 Bft)
24.05.2013 11:56 11,2 C 17,9 C 65 % 1010,7 hPa 0,0 l/m 2 min 0 min 2,0 UV-I 986 W/m 2,6 km/h (1 Bft)
24.05.2013 11:58 11,2 C 16,2 C 66 % 1010,7 hPa 0,0 l/m 0 min 0 min 1,9 UV-I 320 W/m 7,7 km/h (2 Bft)
24.05.2013 12:00 11,0 C 15,1 C 63 % 1010,7 hPa 0,0 l/m 0 min 0 min 2,6 UV-I 285 W/m 15,4 km/h (3 Bft)
24.05.2013 12:02 10,8 C 13,4 C 61 % 1010,8 hPa 0,0 l/m 0 min 0 min 1,1 UV-I 218 W/m 15,4 km/h (3 Bft)
24.05.2013 12:04 10,6 C 11,8 C 60 % 1010,8 hPa 0,0 l/m 0 min 0 min 1,1 UV-I 216 W/m 10,3 km/h (2 Bft)
24.05.2013 12:06 10,4 C 11,2 C 61 % 1010,8 hPa 0,0 l/m 0 min 0 min 1,2 UV-I 243 W/m 5,1 km/h (1 Bft)
24.05.2013 12:08 10,2 C 10,7 C 63 % 1010,8 hPa 0,0 l/m 0 min 0 min 1,3 UV-I 253 W/m 10,3 km/h (2 Bft)
24.05.2013 12:10 10,0 C 10,7 C 63 % 1010,8 hPa 0,0 l/m 0 min 0 min 1,4 UV-I 257 W/m 5,1 km/h (1 Bft)
24.05.2013 12:12 9,9 C 11,8 C 64 % 1010,8 hPa 0,0 l/m 0 min 0 min 3,6 UV-I 272 W/m 5,1 km/h (1 Bft)
24.05.2013 12:14 10,3 C 15,7 C 67 % 1010,8 hPa 0,0 l/m 2 min 0 min 2,6 UV-I 997 W/m 0,0 km/h (0 Bft)
24.05.2013 12:16 10,6 C 15,7 C 63 % 1010,8 hPa 0,0 l/m 2 min 0 min 4,0 UV-I 997 W/m 2,6 km/h (1 Bft)
24.05.2013 12:18 10,9 C 17,3 C 63 % 1010,7 hPa 0,0 l/m 2 min 0 min 4,0 UV-I 972 W/m 10,3 km/h (2 Bft)
24.05.2013 12:20 11,3 C 18,4 C 63 % 1010,8 hPa 0,0 l/m 2 min 0 min 3,9 UV-I 960 W/m 7,7 km/h (2 Bft)
24.05.2013 12:22 11,5 C 19,0 C 61 % 1010,8 hPa 0,0 l/m 2 min 0 min 3,1 UV-I 983 W/m 7,7 km/h (2 Bft)
24.05.2013 12:24 11,6 C 17,3 C 61 % 1010,8 hPa 0,0 l/m 0 min 0 min 2,7 UV-I 269 W/m 0,0 km/h (0 Bft)
24.05.2013 12:26 11,5 C 16,2 C 60 % 1010,8 hPa 0,0 l/m 0 min 0 min 1,7 UV-I 274 W/m 0,0 km/h (0 Bft)
24.05.2013 12:28 11,2 C 16,8 C 63 % 1010,8 hPa 0,0 l/m 0 min 0 min 4,1 UV-I 274 W/m 0,0 km/h (0 Bft)
24.05.2013 12:30 11,3 C 16,8 C 61 % 1010,9 hPa 0,0 l/m 0 min 0 min 2,5 UV-I 274 W/m 7,7 km/h (2 Bft)
24.05.2013 12:32 11,2 C 15,7 C 61 % 1010,8 hPa 0,0 l/m 0 min 0 min 1,7 UV-I 318 W/m 12,9 km/h (3 Bft)
24.05.2013 12:34 11,2 C 15,7 C 65 % 1010,8 hPa 0,0 l/m 0 min 0 min 1,8 UV-I 343 W/m 2,6 km/h (1 Bft)
24.05.2013 12:36 11,2 C 14,0 C 62 % 1010,8 hPa 0,0 l/m 0 min 0 min 1,6 UV-I 325 W/m 5,1 km/h (1 Bft)
24.05.2013 12:38 11,0 C 13,4 C 62 % 1010,8 hPa 0,0 l/m 0 min 0 min 1,5 UV-I 315 W/m 7,7 km/h (2 Bft)
24.05.2013 12:40 10,8 C 12,3 C 62 % 1010,8 hPa 0,0 l/m 0 min 0 min 1,3 UV-I 272 W/m 12,9 km/h (3 Bft)
24.05.2013 12:42 10,7 C 11,8 C 63 % 1010,8 hPa 0,0 l/m 0 min 0 min 1,3 UV-I 276 W/m 5,1 km/h (1 Bft)
24.05.2013 12:44 10,6 C 11,8 C 62 % 1010,8 hPa 0,0 l/m 0 min 0 min 1,5 UV-I 313 W/m 2,6 km/h (1 Bft)
24.05.2013 12:46 10,6 C 11,8 C 63 % 1010,9 hPa 0,0 l/m 0 min 0 min 1,3 UV-I 295 W/m 5,1 km/h (1 Bft)
24.05.2013 12:48 10,4 C 11,2 C 62 % 1010,8 hPa 0,0 l/m 0 min 0 min 1,2 UV-I 267 W/m 12,9 km/h (3 Bft)
24.05.2013 12:50 10,3 C 11,2 C 63 % 1010,8 hPa 0,0 l/m 0 min 0 min 1,1 UV-I 260 W/m 2,6 km/h (1 Bft)
24.05.2013 12:52 10,3 C 11,2 C 64 % 1010,8 hPa 0,0 l/m 0 min 0 min 1,1 UV-I 258 W/m 5,1 km/h (1 Bft)
24.05.2013 12:54 10,3 C 11,2 C 63 % 1010,8 hPa 0,0 l/m 0 min 0 min 1,0 UV-I 234 W/m 0,0 km/h (0 Bft)
24.05.2013 12:56 10,3 C 11,2 C 65 % 1010,8 hPa 0,0 l/m 0 min 0 min 1,0 UV-I 225 W/m 0,0 km/h (0 Bft)
24.05.2013 12:58 10,3 C 11,2 C 64 % 1010,8 hPa 0,0 l/m 0 min 0 min 1,0 UV-I 225 W/m 7,7 km/h (2 Bft)
24.05.2013 13:00 10,3 C 10,7 C 62 % 1010,9 hPa 0,0 l/m 0 min 0 min 1,0 UV-I 232 W/m 0,0 km/h (0 Bft)
24.05.2013 13:02 10,2 C 10,7 C 61 % 1010,8 hPa 0,0 l/m 0 min 0 min 1,0 UV-I 244 W/m 2,6 km/h (1 Bft)
24.05.2013 13:04 10,2 C 10,7 C 61 % 1010,9 hPa 0,0 l/m 0 min 0 min 1,1 UV-I 257 W/m 0,0 km/h (0 Bft)
24.05.2013 13:06 10,3 C 12,9 C 60 % 1010,9 hPa 0,0 l/m 2 min 0 min 1,4 UV-I 1049 W/m 0,0 km/h (0 Bft)
24.05.2013 13:08 11,1 C 17,3 C 65 % 1010,9 hPa 0,0 l/m 2 min 0 min 1,8 UV-I 1065 W/m 0,0 km/h (0 Bft)
24.05.2013 13:10 11,3 C 17,9 C 61 % 1010,8 hPa 0,0 l/m 2 min 0 min 1,9 UV-I 1069 W/m 0,0 km/h (0 Bft)
24.05.2013 13:12 11,6 C 18,4 C 59 % 1010,8 hPa 0,0 l/m 2 min 0 min 1,9 UV-I 1060 W/m 0,0 km/h (0 Bft)
24.05.2013 13:14 11,8 C 20,1 C 58 % 1010,8 hPa 0,0 l/m 2 min 0 min 2,0 UV-I 1053 W/m 2,6 km/h (1 Bft)
24.05.2013 13:16 12,2 C 18,4 C 61 % 1010,8 hPa 0,0 l/m 0 min 0 min 1,8 UV-I 287 W/m 7,7 km/h (2 Bft)
24.05.2013 13:18 12,0 C 15,7 C 57 % 1010,8 hPa 0,0 l/m 0 min 0 min 1,6 UV-I 255 W/m 10,3 km/h (2 Bft)
24.05.2013 13:20 11,7 C 14,0 C 56 % 1010,8 hPa 0,0 l/m 0 min 0 min 1,3 UV-I 236 W/m 7,7 km/h (2 Bft)
24.05.2013 13:22 11,4 C 12,9 C 58 % 1010,8 hPa 0,0 l/m 0 min 0 min 1,1 UV-I 225 W/m 0,0 km/h (0 Bft)
24.05.2013 13:24 11,1 C 11,8 C 56 % 1010,8 hPa 0,0 l/m 0 min 0 min 1,0 UV-I 230 W/m 0,0 km/h (0 Bft)
24.05.2013 13:26 10,9 C 11,8 C 59 % 1010,8 hPa 0,0 l/m 0 min 0 min 1,1 UV-I 262 W/m 0,0 km/h (0 Bft)
24.05.2013 13:28 10,9 C 11,8 C 59 % 1010,9 hPa 0,0 l/m 0 min 0 min 1,2 UV-I 294 W/m 2,6 km/h (1 Bft)
24.05.2013 13:30 10,9 C 12,9 C 62 % 1010,8 hPa 0,0 l/m 0 min 0 min 1,3 UV-I 288 W/m 2,6 km/h (1 Bft)
24.05.2013 13:32 11,2 C 15,7 C 59 % 1010,9 hPa 0,0 l/m 2 min 0 min 1,4 UV-I 1058 W/m 7,7 km/h (2 Bft)
24.05.2013 13:34 11,9 C 18,4 C 65 % 1010,8 hPa 0,0 l/m 2 min 0 min 1,6 UV-I 1046 W/m 12,9 km/h (3 Bft)
24.05.2013 13:36 13,0 C 20,1 C 65 % 1010,9 hPa 0,0 l/m 2 min 0 min 1,8 UV-I 993 W/m 7,7 km/h (2 Bft)
24.05.2013 13:38 13,3 C 17,9 C 60 % 1010,8 hPa 0,0 l/m 0 min 0 min 1,5 UV-I 315 W/m 10,3 km/h (2 Bft)
24.05.2013 13:40 12,8 C 15,1 C 54 % 1010,9 hPa 0,0 l/m 0 min 0 min 1,4 UV-I 285 W/m 10,3 km/h (2 Bft)
24.05.2013 13:42 12,4 C 14,6 C 55 % 1010,9 hPa 0,0 l/m 0 min 0 min 1,5 UV-I 309 W/m 15,4 km/h (3 Bft)
24.05.2013 13:44 12,2 C 13,4 C 55 % 1010,8 hPa 0,0 l/m 0 min 0 min 1,6 UV-I 332 W/m 10,3 km/h (2 Bft)
24.05.2013 13:46 12,1 C 14,0 C 57 % 1010,8 hPa 0,0 l/m 0 min 0 min 1,7 UV-I 332 W/m 7,7 km/h (2 Bft)
24.05.2013 13:48 12,1 C 13,4 C 56 % 1010,8 hPa 0,0 l/m 0 min 0 min 2,7 UV-I 332 W/m 7,7 km/h (2 Bft)
24.05.2013 13:50 12,1 C 14,0 C 56 % 1010,8 hPa 0,0 l/m 0 min 0 min 3,9 UV-I 332 W/m 12,9 km/h (3 Bft)
24.05.2013 13:52 12,3 C 14,0 C 53 % 1010,8 hPa 0,0 l/m 0 min 0 min 4,0 UV-I 332 W/m 7,7 km/h (2 Bft)
24.05.2013 13:54 12,5 C 14,6 C 57 % 1010,7 hPa 0,0 l/m 2 min 0 min 4,1 UV-I 1027 W/m 7,7 km/h (2 Bft)
24.05.2013 13:56 12,9 C 15,1 C 55 % 1010,8 hPa 0,0 l/m 2 min 0 min 4,4 UV-I 1065 W/m 12,9 km/h (3 Bft)
24.05.2013 13:58 13,2 C 15,1 C 54 % 1010,9 hPa 0,0 l/m 2 min 0 min 2,9 UV-I 1065 W/m 18,0 km/h (3 Bft)
24.05.2013 14:00 13,1 C 14,6 C 53 % 1010,8 hPa 0,0 l/m 2 min 0 min 2,2 UV-I 483 W/m 15,4 km/h (3 Bft)
24.05.2013 14:02 12,7 C 14,0 C 52 % 1010,8 hPa 0,0 l/m 0 min 0 min 3,3 UV-I 362 W/m 10,3 km/h (2 Bft)
24.05.2013 14:04 12,6 C 14,0 C 54 % 1010,8 hPa 0,0 l/m 2 min 0 min 4,3 UV-I 918 W/m 10,3 km/h (2 Bft)
24.05.2013 14:06 12,7 C 14,0 C 56 % 1010,8 hPa 0,0 l/m 2 min 0 min 4,2 UV-I 937 W/m 12,9 km/h (3 Bft)
24.05.2013 14:08 12,8 C 14,0 C 57 % 1010,8 hPa 0,0 l/m 2 min 0 min 1,9 UV-I 847 W/m 5,1 km/h (1 Bft)
24.05.2013 14:10 12,8 C 14,0 C 55 % 1010,8 hPa 0,0 l/m 2 min 0 min 4,2 UV-I 856 W/m 7,7 km/h (2 Bft)
24.05.2013 14:12 12,9 C 14,0 C 54 % 1010,8 hPa 0,0 l/m 2 min 0 min 4,1 UV-I 928 W/m 7,7 km/h (2 Bft)
24.05.2013 14:14 13,1 C 14,0 C 56 % 1010,7 hPa 0,0 l/m 2 min 0 min 4,2 UV-I 970 W/m 7,7 km/h (2 Bft)
24.05.2013 14:16 13,3 C 15,1 C 53 % 1010,7 hPa 0,0 l/m 2 min 0 min 4,3 UV-I 972 W/m 7,7 km/h (2 Bft)
24.05.2013 14:18 13,4 C 15,1 C 54 % 1010,7 hPa 0,0 l/m 2 min 0 min 4,3 UV-I 981 W/m 10,3 km/h (2 Bft)
24.05.2013 14:20 13,8 C 15,1 C 55 % 1010,7 hPa 0,0 l/m 2 min 0 min 4,2 UV-I 969 W/m 12,9 km/h (3 Bft)
24.05.2013 14:22 13,5 C 15,1 C 50 % 1010,7 hPa 0,0 l/m 2 min 0 min 4,1 UV-I 960 W/m 12,9 km/h (3 Bft)
24.05.2013 14:24 13,6 C 15,1 C 54 % 1010,7 hPa 0,0 l/m 2 min 0 min 4,2 UV-I 944 W/m 25,7 km/h (4 Bft)
24.05.2013 14:26 13,7 C 15,7 C 54 % 1010,7 hPa 0,0 l/m 2 min 0 min 4,2 UV-I 960 W/m 15,4 km/h (3 Bft)
24.05.2013 14:28 13,8 C 15,7 C 55 % 1010,7 hPa 0,0 l/m 2 min 0 min 4,1 UV-I 972 W/m 7,7 km/h (2 Bft)
24.05.2013 14:30 14,0 C 15,7 C 54 % 1010,6 hPa 0,0 l/m 2 min 0 min 2,2 UV-I 991 W/m 7,7 km/h (2 Bft)
24.05.2013 14:32 13,9 C 15,1 C 52 % 1010,7 hPa 0,0 l/m 2 min 0 min 1,5 UV-I 991 W/m 15,4 km/h (3 Bft)
24.05.2013 14:34 13,4 C 14,6 C 51 % 1010,7 hPa 0,0 l/m 0 min 0 min 1,4 UV-I 267 W/m 12,9 km/h (3 Bft)
24.05.2013 14:36 12,9 C 13,4 C 52 % 1010,7 hPa 0,0 l/m 0 min 0 min 1,3 UV-I 306 W/m 18,0 km/h (3 Bft)
24.05.2013 14:38 12,7 C 13,4 C 54 % 1010,7 hPa 0,0 l/m 0 min 0 min 1,3 UV-I 278 W/m 20,6 km/h (4 Bft)
24.05.2013 14:40 12,7 C 13,4 C 57 % 1010,8 hPa 0,0 l/m 0 min 0 min 1,3 UV-I 269 W/m 15,4 km/h (3 Bft)
24.05.2013 14:42 12,5 C 13,4 C 55 % 1010,7 hPa 0,0 l/m 0 min 0 min 1,3 UV-I 281 W/m 15,4 km/h (3 Bft)
24.05.2013 14:44 12,3 C 13,4 C 56 % 1010,7 hPa 0,0 l/m 0 min 0 min 1,3 UV-I 276 W/m 2,6 km/h (1 Bft)
24.05.2013 14:46 12,2 C 12,9 C 57 % 1010,7 hPa 0,0 l/m 0 min 0 min 1,3 UV-I 316 W/m 10,3 km/h (2 Bft)
24.05.2013 14:48 12,2 C 13,4 C 55 % 1010,8 hPa 0,0 l/m 0 min 0 min 1,7 UV-I 316 W/m 12,9 km/h (3 Bft)
24.05.2013 14:50 12,4 C 13,4 C 57 % 1010,7 hPa 0,0 l/m 0 min 0 min 1,5 UV-I 309 W/m 20,6 km/h (4 Bft)
24.05.2013 14:52 12,5 C 13,4 C 57 % 1010,7 hPa 0,0 l/m 0 min 0 min 3,5 UV-I 316 W/m 23,2 km/h (4 Bft)
24.05.2013 14:54 12,8 C 14,0 C 56 % 1010,7 hPa 0,0 l/m 2 min 0 min 1,6 UV-I 867 W/m 12,9 km/h (3 Bft)
24.05.2013 14:56 12,9 C 14,0 C 55 % 1010,7 hPa 0,0 l/m 0 min 0 min 1,4 UV-I 271 W/m 20,6 km/h (4 Bft)
24.05.2013 14:58 12,7 C 13,4 C 55 % 1010,7 hPa 0,0 l/m 0 min 0 min 1,8 UV-I 318 W/m 15,4 km/h (3 Bft)
24.05.2013 15:00 12,8 C 14,0 C 59 % 1010,8 hPa 0,0 l/m 0 min 0 min 3,7 UV-I 318 W/m 2,6 km/h (1 Bft)
24.05.2013 15:02 13,1 C 14,6 C 55 % 1010,8 hPa 0,0 l/m 2 min 0 min 3,7 UV-I 949 W/m 15,4 km/h (3 Bft)
24.05.2013 15:04 13,2 C 14,6 C 54 % 1010,7 hPa 0,0 l/m 2 min 0 min 2,2 UV-I 923 W/m 10,3 km/h (2 Bft)
24.05.2013 15:06 13,3 C 14,6 C 55 % 1010,7 hPa 0,0 l/m 2 min 0 min 1,5 UV-I 923 W/m 15,4 km/h (3 Bft)
24.05.2013 15:08 13,2 C 14,0 C 53 % 1010,7 hPa 0,0 l/m 0 min 0 min 2,0 UV-I 288 W/m 15,4 km/h (3 Bft)
24.05.2013 15:10 13,2 C 14,0 C 55 % 1010,7 hPa 0,0 l/m 0 min 0 min 3,2 UV-I 288 W/m 12,9 km/h (3 Bft)
24.05.2013 15:12 13,2 C 14,0 C 53 % 1010,6 hPa 0,0 l/m 2 min 0 min 3,7 UV-I 937 W/m 7,7 km/h (2 Bft)
24.05.2013 15:14 13,2 C 14,6 C 55 % 1010,7 hPa 0,0 l/m 2 min 0 min 3,7 UV-I 935 W/m 7,7 km/h (2 Bft)
24.05.2013 15:16 13,4 C 14,6 C 54 % 1010,6 hPa 0,0 l/m 2 min 0 min 3,6 UV-I 935 W/m 10,3 km/h (2 Bft)
24.05.2013 15:18 13,7 C 14,6 C 55 % 1010,6 hPa 0,0 l/m 2 min 0 min 3,6 UV-I 805 W/m 25,7 km/h (4 Bft)
24.05.2013 15:20 14,0 C 15,1 C 54 % 1010,7 hPa 0,0 l/m 2 min 0 min 3,6 UV-I 907 W/m 23,2 km/h (4 Bft)
24.05.2013 15:22 14,2 C 15,1 C 52 % 1010,6 hPa 0,0 l/m 2 min 0 min 3,6 UV-I 893 W/m 18,0 km/h (3 Bft)
24.05.2013 15:24 14,0 C 15,1 C 48 % 1010,6 hPa 0,0 l/m 2 min 0 min 3,5 UV-I 882 W/m 15,4 km/h (3 Bft)
24.05.2013 15:26 14,1 C 14,6 C 50 % 1010,6 hPa 0,0 l/m 2 min 0 min 3,5 UV-I 854 W/m 12,9 km/h (3 Bft)
24.05.2013 15:28 14,0 C 14,6 C 51 % 1010,5 hPa 0,0 l/m 2 min 0 min 3,4 UV-I 867 W/m 15,4 km/h (3 Bft)
24.05.2013 15:30 14,0 C 14,6 C 50 % 1010,6 hPa 0,0 l/m 2 min 0 min 3,4 UV-I 814 W/m 15,4 km/h (3 Bft)
24.05.2013 15:32 14,0 C 14,6 C 51 % 1010,6 hPa 0,0 l/m 2 min 0 min 3,4 UV-I 833 W/m 15,4 km/h (3 Bft)
24.05.2013 15:34 14,2 C 14,6 C 53 % 1010,6 hPa 0,0 l/m 2 min 0 min 3,3 UV-I 814 W/m 10,3 km/h (2 Bft)
24.05.2013 15:36 14,2 C 14,6 C 52 % 1010,5 hPa 0,0 l/m 2 min 0 min 3,2 UV-I 812 W/m 18,0 km/h (3 Bft)
24.05.2013 15:38 14,3 C 14,6 C 52 % 1010,5 hPa 0,0 l/m 2 min 0 min 3,2 UV-I 809 W/m 20,6 km/h (4 Bft)
24.05.2013 15:40 14,3 C 14,6 C 51 % 1010,6 hPa 0,0 l/m 2 min 0 min 3,2 UV-I 809 W/m 20,6 km/h (4 Bft)
24.05.2013 15:42 14,4 C 14,6 C 51 % 1010,5 hPa 0,0 l/m 2 min 0 min 3,2 UV-I 803 W/m 5,1 km/h (1 Bft)
24.05.2013 15:44 14,3 C 14,6 C 53 % 1010,6 hPa 0,0 l/m 2 min 0 min 3,1 UV-I 795 W/m 18,0 km/h (3 Bft)
24.05.2013 15:46 14,2 C 14,6 C 53 % 1010,5 hPa 0,0 l/m 2 min 0 min 3,1 UV-I 788 W/m 12,9 km/h (3 Bft)
24.05.2013 15:48 14,1 C 14,6 C 54 % 1010,5 hPa 0,0 l/m 2 min 0 min 3,0 UV-I 780 W/m 7,7 km/h (2 Bft)
24.05.2013 15:50 14,3 C 14,6 C 54 % 1010,5 hPa 0,0 l/m 2 min 0 min 3,0 UV-I 784 W/m 5,1 km/h (1 Bft)
24.05.2013 15:52 14,2 C 14,6 C 53 % 1010,5 hPa 0,0 l/m 2 min 0 min 2,9 UV-I 788 W/m 25,7 km/h (4 Bft)
24.05.2013 15:54 14,2 C 14,0 C 51 % 1010,5 hPa 0,0 l/m 2 min 0 min 1,1 UV-I 788 W/m 20,6 km/h (4 Bft)
24.05.2013 15:56 13,9 C 13,4 C 49 % 1010,5 hPa 0,0 l/m 0 min 0 min 1,2 UV-I 155 W/m 10,3 km/h (2 Bft)
24.05.2013 15:58 13,3 C 14,0 C 48 % 1010,4 hPa 0,0 l/m 2 min 0 min 2,9 UV-I 831 W/m 0,0 km/h (0 Bft)
24.05.2013 16:00 13,3 C 15,7 C 53 % 1010,5 hPa 0,0 l/m 2 min 0 min 2,9 UV-I 865 W/m 15,4 km/h (3 Bft)
24.05.2013 16:02 13,9 C 17,3 C 54 % 1010,4 hPa 0,0 l/m 2 min 0 min 3,0 UV-I 896 W/m 12,9 km/h (3 Bft)
24.05.2013 16:04 14,1 C 17,3 C 50 % 1010,5 hPa 0,0 l/m 2 min 0 min 1,8 UV-I 824 W/m 10,3 km/h (2 Bft)
24.05.2013 16:06 13,8 C 15,1 C 50 % 1010,4 hPa 0,0 l/m 2 min 0 min 1,8 UV-I 824 W/m 10,3 km/h (2 Bft)
24.05.2013 16:08 13,6 C 14,6 C 50 % 1010,4 hPa 0,0 l/m 0 min 0 min 1,2 UV-I 209 W/m 5,1 km/h (1 Bft)
24.05.2013 16:10 13,6 C 14,0 C 51 % 1010,5 hPa 0,0 l/m 0 min 0 min 1,1 UV-I 204 W/m 7,7 km/h (2 Bft)
24.05.2013 16:12 13,3 C 13,4 C 53 % 1010,5 hPa 0,0 l/m 0 min 0 min 1,3 UV-I 257 W/m 12,9 km/h (3 Bft)
24.05.2013 16:14 13,1 C 13,4 C 52 % 1010,5 hPa 0,0 l/m 0 min 0 min 1,3 UV-I 255 W/m 12,9 km/h (3 Bft)
24.05.2013 16:16 13,0 C 13,4 C 53 % 1010,4 hPa 0,0 l/m 0 min 0 min 1,6 UV-I 214 W/m 7,7 km/h (2 Bft)
24.05.2013 16:18 13,1 C 13,4 C 54 % 1010,5 hPa 0,0 l/m 0 min 0 min 2,4 UV-I 214 W/m 10,3 km/h (2 Bft)
24.05.2013 16:20 13,4 C 13,4 C 51 % 1010,5 hPa 0,0 l/m 2 min 0 min 2,3 UV-I 705 W/m 7,7 km/h (2 Bft)
24.05.2013 16:22 13,6 C 14,0 C 51 % 1010,5 hPa 0,0 l/m 2 min 0 min 2,4 UV-I 724 W/m 10,3 km/h (2 Bft)
24.05.2013 16:24 13,9 C 14,0 C 53 % 1010,4 hPa 0,0 l/m 2 min 0 min 2,3 UV-I 710 W/m 10,3 km/h (2 Bft)
24.05.2013 16:26 14,0 C 14,0 C 53 % 1010,4 hPa 0,0 l/m 2 min 0 min 2,4 UV-I 707 W/m 10,3 km/h (2 Bft)
24.05.2013 16:28 14,0 C 14,0 C 50 % 1010,5 hPa 0,0 l/m 2 min 0 min 2,3 UV-I 701 W/m 7,7 km/h (2 Bft)
24.05.2013 16:30 14,0 C 14,0 C 50 % 1010,4 hPa 0,0 l/m 2 min 0 min 2,3 UV-I 698 W/m 12,9 km/h (3 Bft)
24.05.2013 16:32 13,8 C 13,4 C 48 % 1010,5 hPa 0,0 l/m 2 min 0 min 2,3 UV-I 694 W/m 15,4 km/h (3 Bft)
24.05.2013 16:34 14,0 C 14,0 C 48 % 1010,5 hPa 0,0 l/m 2 min 0 min 2,2 UV-I 687 W/m 20,6 km/h (4 Bft)
24.05.2013 16:36 14,0 C 14,0 C 49 % 1010,5 hPa 0,0 l/m 2 min 0 min 2,2 UV-I 686 W/m 15,4 km/h (3 Bft)
24.05.2013 16:38 14,2 C 14,0 C 48 % 1010,5 hPa 0,0 l/m 2 min 0 min 2,2 UV-I 687 W/m 20,6 km/h (4 Bft)
24.05.2013 16:40 14,1 C 14,0 C 49 % 1010,5 hPa 0,0 l/m 2 min 0 min 2,1 UV-I 689 W/m 10,3 km/h (2 Bft)
24.05.2013 16:42 14,2 C 14,0 C 50 % 1010,5 hPa 0,0 l/m 2 min 0 min 2,1 UV-I 682 W/m 10,3 km/h (2 Bft)
24.05.2013 16:44 14,4 C 14,0 C 50 % 1010,5 hPa 0,0 l/m 2 min 0 min 2,0 UV-I 680 W/m 0,0 km/h (0 Bft)
24.05.2013 16:46 14,3 C 14,0 C 49 % 1010,6 hPa 0,0 l/m 2 min 0 min 0,8 UV-I 679 W/m 7,7 km/h (2 Bft)
24.05.2013 16:48 14,3 C 13,4 C 48 % 1010,6 hPa 0,0 l/m 0 min 0 min 1,7 UV-I 111 W/m 12,9 km/h (3 Bft)
24.05.2013 16:50 14,0 C 13,4 C 48 % 1010,6 hPa 0,0 l/m 0 min 0 min 1,9 UV-I 257 W/m 10,3 km/h (2 Bft)
24.05.2013 16:52 14,0 C 13,4 C 49 % 1010,5 hPa 0,0 l/m 2 min 0 min 1,9 UV-I 657 W/m 12,9 km/h (3 Bft)
24.05.2013 16:54 14,0 C 13,4 C 50 % 1010,6 hPa 0,0 l/m 2 min 0 min 1,9 UV-I 650 W/m 12,9 km/h (3 Bft)
24.05.2013 16:56 14,2 C 13,4 C 48 % 1010,6 hPa 0,0 l/m 2 min 0 min 1,8 UV-I 643 W/m 7,7 km/h (2 Bft)
24.05.2013 16:58 14,3 C 14,0 C 49 % 1010,6 hPa 0,0 l/m 2 min 0 min 1,8 UV-I 645 W/m 15,4 km/h (3 Bft)
24.05.2013 17:00 14,2 C 14,0 C 46 % 1010,6 hPa 0,0 l/m 2 min 0 min 1,8 UV-I 643 W/m 15,4 km/h (3 Bft)
24.05.2013 17:02 14,1 C 13,4 C 47 % 1010,6 hPa 0,0 l/m 2 min 0 min 1,7 UV-I 649 W/m 15,4 km/h (3 Bft)
24.05.2013 17:04 14,0 C 13,4 C 46 % 1010,5 hPa 0,0 l/m 2 min 0 min 1,7 UV-I 643 W/m 10,3 km/h (2 Bft)
24.05.2013 17:06 13,8 C 12,9 C 47 % 1010,4 hPa 0,0 l/m 2 min 0 min 1,7 UV-I 659 W/m 10,3 km/h (2 Bft)
24.05.2013 17:08 14,0 C 13,4 C 48 % 1010,4 hPa 0,0 l/m 2 min 0 min 0,7 UV-I 659 W/m 18,0 km/h (3 Bft)
24.05.2013 17:10 13,9 C 12,9 C 49 % 1010,5 hPa 0,0 l/m 0 min 0 min 0,6 UV-I 113 W/m 12,9 km/h (3 Bft)
24.05.2013 17:12 13,7 C 12,9 C 49 % 1010,5 hPa 0,0 l/m 0 min 0 min 1,5 UV-I 114 W/m 7,7 km/h (2 Bft)
24.05.2013 17:14 13,9 C 13,4 C 49 % 1010,6 hPa 0,0 l/m 2 min 0 min 1,5 UV-I 628 W/m 18,0 km/h (3 Bft)
24.05.2013 17:16 14,0 C 13,4 C 46 % 1010,5 hPa 0,0 l/m 2 min 0 min 1,5 UV-I 624 W/m 12,9 km/h (3 Bft)
24.05.2013 17:18 14,0 C 13,4 C 46 % 1010,5 hPa 0,0 l/m 2 min 0 min 1,4 UV-I 619 W/m 18,0 km/h (3 Bft)
24.05.2013 17:20 14,1 C 13,4 C 47 % 1010,5 hPa 0,0 l/m 2 min 0 min 1,4 UV-I 608 W/m 7,7 km/h (2 Bft)
24.05.2013 17:22 14,2 C 13,4 C 47 % 1010,5 hPa 0,0 l/m 2 min 0 min 0,6 UV-I 608 W/m 18,0 km/h (3 Bft)
24.05.2013 17:24 14,0 C 12,9 C 46 % 1010,5 hPa 0,0 l/m 0 min 0 min 1,4 UV-I 316 W/m 12,9 km/h (3 Bft)
24.05.2013 17:26 13,9 C 13,4 C 48 % 1010,5 hPa 0,0 l/m 2 min 0 min 1,3 UV-I 631 W/m 18,0 km/h (3 Bft)
24.05.2013 17:28 13,8 C 13,4 C 46 % 1010,5 hPa 0,0 l/m 2 min 0 min 1,3 UV-I 624 W/m 10,3 km/h (2 Bft)
24.05.2013 17:30 13,7 C 13,4 C 46 % 1010,4 hPa 0,0 l/m 2 min 0 min 1,3 UV-I 621 W/m 10,3 km/h (2 Bft)
24.05.2013 17:32 13,9 C 13,4 C 47 % 1010,5 hPa 0,0 l/m 2 min 0 min 1,2 UV-I 626 W/m 10,3 km/h (2 Bft)
24.05.2013 17:34 14,0 C 13,4 C 48 % 1010,5 hPa 0,0 l/m 2 min 0 min 0,7 UV-I 636 W/m 10,3 km/h (2 Bft)
24.05.2013 17:36 14,0 C 13,4 C 49 % 1010,5 hPa 0,0 l/m 0 min 0 min 0,0 UV-I 188 W/m 15,4 km/h (3 Bft)
24.05.2013 17:38 14,0 C 13,4 C 48 % 1010,5 hPa 0,0 l/m 0 min 0 min 0,0 UV-I 176 W/m 10,3 km/h (2 Bft)
24.05.2013 17:40 13,8 C 13,4 C 50 % 1010,5 hPa 0,0 l/m 0 min 0 min 0,0 UV-I 253 W/m 7,7 km/h (2 Bft)
24.05.2013 17:42 13,7 C 13,4 C 49 % 1010,5 hPa 0,0 l/m 0 min 0 min 0,0 UV-I 260 W/m 5,1 km/h (1 Bft)
24.05.2013 17:44 13,6 C 13,4 C 48 % 1010,5 hPa 0,0 l/m 0 min 0 min 0,0 UV-I 167 W/m 15,4 km/h (3 Bft)
24.05.2013 17:46 13,4 C 12,9 C 48 % 1010,6 hPa 0,0 l/m 0 min 0 min 0,0 UV-I 137 W/m 12,9 km/h (3 Bft)
24.05.2013 17:48 13,2 C 12,9 C 49 % 1010,5 hPa 0,0 l/m 0 min 0 min 0,0 UV-I 120 W/m 10,3 km/h (2 Bft)
24.05.2013 17:50 13,1 C 12,3 C 48 % 1010,6 hPa 0,0 l/m 0 min 0 min 0,0 UV-I 113 W/m 2,6 km/h (1 Bft)
24.05.2013 17:52 12,9 C 12,3 C 51 % 1010,6 hPa 0,0 l/m 0 min 0 min 0,0 UV-I 113 W/m 10,3 km/h (2 Bft)
24.05.2013 17:54 12,9 C 12,3 C 51 % 1010,5 hPa 0,0 l/m 0 min 0 min 0,0 UV-I 113 W/m 2,6 km/h (1 Bft)
24.05.2013 17:56 12,8 C 12,3 C 49 % 1010,5 hPa 0,0 l/m 0 min 0 min 0,0 UV-I 118 W/m 12,9 km/h (3 Bft)
24.05.2013 17:58 12,7 C 11,8 C 50 % 1010,6 hPa 0,0 l/m 0 min 0 min 0,0 UV-I 128 W/m 7,7 km/h (2 Bft)
24.05.2013 18:00 12,6 C 11,8 C 50 % 1010,6 hPa 0,0 l/m 0 min 0 min 0,0 UV-I 172 W/m 0,0 km/h (0 Bft)
24.05.2013 18:02 12,6 C 12,3 C 52 % 1010,6 hPa 0,0 l/m 2 min 0 min 0,5 UV-I 357 W/m 7,7 km/h (2 Bft)
24.05.2013 18:04 12,7 C 12,3 C 51 % 1010,6 hPa 0,0 l/m 2 min 0 min 0,5 UV-I 381 W/m 5,1 km/h (1 Bft)
24.05.2013 18:06 12,8 C 12,3 C 51 % 1010,6 hPa 0,0 l/m 2 min 0 min 0,0 UV-I 332 W/m 5,1 km/h (1 Bft)
24.05.2013 18:08 12,9 C 12,3 C 50 % 1010,6 hPa 0,0 l/m 2 min 0 min 0,6 UV-I 482 W/m 10,3 km/h (2 Bft)
24.05.2013 18:10 12,9 C 12,3 C 48 % 1010,6 hPa 0,0 l/m 2 min 0 min 0,6 UV-I 510 W/m 2,6 km/h (1 Bft)
24.05.2013 18:12 13,0 C 12,3 C 50 % 1010,5 hPa 0,0 l/m 2 min 0 min 0,0 UV-I 489 W/m 7,7 km/h (2 Bft)
24.05.2013 18:14 13,1 C 12,9 C 49 % 1010,5 hPa 0,0 l/m 2 min 0 min 0,0 UV-I 417 W/m 2,6 km/h (1 Bft)
24.05.2013 18:16 13,2 C 12,9 C 51 % 1010,6 hPa 0,0 l/m 2 min 0 min 0,0 UV-I 345 W/m 10,3 km/h (2 Bft)
24.05.2013 18:18 13,3 C 12,9 C 49 % 1010,6 hPa 0,0 l/m 0 min 0 min 0,0 UV-I 156 W/m 10,3 km/h (2 Bft)
24.05.2013 18:20 13,3 C 12,9 C 49 % 1010,6 hPa 0,0 l/m 0 min 0 min 0,0 UV-I 142 W/m 10,3 km/h (2 Bft)
24.05.2013 18:22 13,3 C 12,9 C 49 % 1010,6 hPa 0,0 l/m 0 min 0 min 0,0 UV-I 113 W/m 12,9 km/h (3 Bft)
24.05.2013 18:24 13,2 C 12,3 C 50 % 1010,6 hPa 0,0 l/m 0 min 0 min 0,0 UV-I 104 W/m 7,7 km/h (2 Bft)
24.05.2013 18:26 13,1 C 12,3 C 53 % 1010,7 hPa 0,0 l/m 0 min 0 min 0,0 UV-I 76 W/m 23,2 km/h (4 Bft)
24.05.2013 18:28 12,9 C 11,8 C 53 % 1010,7 hPa 0,0 l/m 0 min 0 min 0,0 UV-I 62 W/m 20,6 km/h (4 Bft)
24.05.2013 18:30 12,7 C 11,8 C 55 % 1010,7 hPa 0,0 l/m 0 min 0 min 0,0 UV-I 58 W/m 15,4 km/h (3 Bft)
24.05.2013 18:32 12,5 C 11,2 C 55 % 1010,7 hPa 0,0 l/m 0 min 0 min 0,0 UV-I 54 W/m 7,7 km/h (2 Bft)
24.05.2013 18:34 12,3 C 11,2 C 56 % 1010,8 hPa 0,0 l/m 0 min 0 min 0,0 UV-I 51 W/m 7,7 km/h (2 Bft)
24.05.2013 18:36 12,1 C 10,7 C 58 % 1010,8 hPa 0,0 l/m 0 min 2 min 0,0 UV-I 49 W/m 12,9 km/h (3 Bft)
24.05.2013 18:38 11,9 C 10,1 C 60 % 1010,8 hPa 0,0 l/m 0 min 2 min 0,0 UV-I 49 W/m 18,0 km/h (3 Bft)
24.05.2013 18:40 11,7 C 9,6 C 61 % 1010,7 hPa 0,0 l/m 0 min 2 min 0,0 UV-I 49 W/m 12,9 km/h (3 Bft)
24.05.2013 18:42 11,4 C 9,0 C 61 % 1010,7 hPa 0,0 l/m 0 min 2 min 0,0 UV-I 51 W/m 7,7 km/h (2 Bft)
24.05.2013 18:44 11,2 C 9,0 C 60 % 1010,7 hPa 0,0 l/m 0 min 0 min 0,0 UV-I 51 W/m 10,3 km/h (2 Bft)
24.05.2013 18:46 11,1 C 9,6 C 59 % 1010,8 hPa 0,0 l/m 0 min 0 min 0,0 UV-I 53 W/m 18,0 km/h (3 Bft)
24.05.2013 18:48 11,1 C 9,0 C 58 % 1010,7 hPa 0,0 l/m 0 min 2 min 0,0 UV-I 56 W/m 15,4 km/h (3 Bft)
24.05.2013 18:50 11,1 C 9,6 C 56 % 1010,8 hPa 0,0 l/m 0 min 2 min 0,0 UV-I 58 W/m 18,0 km/h (3 Bft)
24.05.2013 18:52 11,1 C 9,6 C 54 % 1010,8 hPa 0,0 l/m 0 min 0 min 0,0 UV-I 62 W/m 12,9 km/h (3 Bft)
24.05.2013 18:54 11,1 C 9,6 C 53 % 1010,6 hPa 0,0 l/m 0 min 0 min 0,0 UV-I 63 W/m 0,0 km/h (0 Bft)
24.05.2013 18:56 11,2 C 10,1 C 56 % 1010,7 hPa 0,0 l/m 0 min 0 min 0,0 UV-I 67 W/m 2,6 km/h (1 Bft)
24.05.2013 18:58 11,3 C 10,1 C 55 % 1010,7 hPa 0,0 l/m 0 min 0 min 0,0 UV-I 69 W/m 7,7 km/h (2 Bft)
24.05.2013 19:00 11,3 C 10,1 C 54 % 1010,7 hPa 0,0 l/m 0 min 0 min 0,0 UV-I 72 W/m 2,6 km/h (1 Bft)
24.05.2013 19:02 11,3 C 10,1 C 54 % 1010,8 hPa 0,0 l/m 0 min 0 min 0,0 UV-I 74 W/m 7,7 km/h (2 Bft)
24.05.2013 19:04 11,4 C 10,1 C 56 % 1010,8 hPa 0,0 l/m 0 min 0 min 0,0 UV-I 77 W/m 5,1 km/h (1 Bft)
24.05.2013 19:06 11,4 C 10,1 C 55 % 1010,8 hPa 0,0 l/m 0 min 0 min 0,0 UV-I 81 W/m 2,6 km/h (1 Bft)
24.05.2013 19:08 11,4 C 10,1 C 56 % 1010,9 hPa 0,0 l/m 0 min 0 min 0,0 UV-I 83 W/m 2,6 km/h (1 Bft)
24.05.2013 19:10 11,4 C 10,7 C 58 % 1011,0 hPa 0,0 l/m 0 min 0 min 0,0 UV-I 86 W/m 7,7 km/h (2 Bft)
24.05.2013 19:12 11,4 C 10,7 C 59 % 1011,0 hPa 0,0 l/m 0 min 0 min 0,0 UV-I 86 W/m 10,3 km/h (2 Bft)
24.05.2013 19:14 11,4 C 10,7 C 59 % 1011,0 hPa 0,0 l/m 0 min 0 min 0,0 UV-I 86 W/m 0,0 km/h (0 Bft)
24.05.2013 19:16 11,3 C 10,7 C 56 % 1011,0 hPa 0,0 l/m 0 min 0 min 0,0 UV-I 83 W/m 2,6 km/h (1 Bft)
24.05.2013 19:18 11,4 C 10,7 C 58 % 1011,0 hPa 0,0 l/m 0 min 0 min 0,0 UV-I 84 W/m 0,0 km/h (0 Bft)
24.05.2013 19:20 11,4 C 10,7 C 58 % 1011,1 hPa 0,0 l/m 0 min 0 min 0,0 UV-I 83 W/m 28,3 km/h (4 Bft)
24.05.2013 19:22 11,3 C 10,1 C 58 % 1011,2 hPa 0,0 l/m 0 min 0 min 0,0 UV-I 77 W/m 15,4 km/h (3 Bft)
24.05.2013 19:24 11,3 C 10,1 C 58 % 1011,2 hPa 0,0 l/m 0 min 0 min 0,0 UV-I 74 W/m 18,0 km/h (3 Bft)
24.05.2013 19:26 11,2 C 10,1 C 58 % 1011,1 hPa 0,0 l/m 0 min 0 min 0,0 UV-I 70 W/m 25,7 km/h (4 Bft)
24.05.2013 19:28 11,2 C 10,1 C 59 % 1011,1 hPa 0,0 l/m 0 min 0 min 0,0 UV-I 69 W/m 10,3 km/h (2 Bft)
24.05.2013 19:30 11,1 C 10,1 C 60 % 1011,1 hPa 0,0 l/m 0 min 0 min 0,0 UV-I 67 W/m 10,3 km/h (2 Bft)
24.05.2013 19:32 11,1 C 10,1 C 59 % 1011,2 hPa 0,0 l/m 0 min 0 min 0,0 UV-I 58 W/m 15,4 km/h (3 Bft)
24.05.2013 19:34 11,1 C 10,1 C 59 % 1011,2 hPa 0,0 l/m 0 min 0 min 0,0 UV-I 54 W/m 10,3 km/h (2 Bft)
24.05.2013 19:36 11,1 C 10,1 C 59 % 1011,1 hPa 0,0 l/m 0 min 0 min 0,0 UV-I 54 W/m 0,0 km/h (0 Bft)
24.05.2013 19:38 11,1 C 10,1 C 58 % 1011,2 hPa 0,0 l/m 0 min 0 min 0,0 UV-I 51 W/m 0,0 km/h (0 Bft)
24.05.2013 19:40 11,2 C 10,1 C 58 % 1011,2 hPa 0,0 l/m 0 min 0 min 0,0 UV-I 49 W/m 0,0 km/h (0 Bft)
24.05.2013 19:42 11,2 C 10,1 C 57 % 1011,2 hPa 0,0 l/m 0 min 0 min 0,0 UV-I 49 W/m 0,0 km/h (0 Bft)
24.05.2013 19:44 11,2 C 10,1 C 57 % 1011,3 hPa 0,0 l/m 0 min 0 min 0,0 UV-I 46 W/m 0,0 km/h (0 Bft)
24.05.2013 19:46 11,3 C 10,1 C 57 % 1011,2 hPa 0,0 l/m 0 min 0 min 0,0 UV-I 46 W/m 0,0 km/h (0 Bft)
24.05.2013 19:48 11,3 C 10,1 C 56 % 1011,2 hPa 0,0 l/m 0 min 0 min 0,0 UV-I 47 W/m 0,0 km/h (0 Bft)
24.05.2013 19:50 11,3 C 10,1 C 57 % 1011,3 hPa 0,0 l/m 0 min 0 min 0,0 UV-I 47 W/m 2,6 km/h (1 Bft)
24.05.2013 19:52 11,3 C 9,6 C 58 % 1011,3 hPa 0,0 l/m 0 min 0 min 0,0 UV-I 44 W/m 2,6 km/h (1 Bft)
24.05.2013 19:54 11,3 C 9,6 C 57 % 1011,3 hPa 0,0 l/m 0 min 0 min 0,0 UV-I 40 W/m 0,0 km/h (0 Bft)
24.05.2013 19:56 11,3 C 9,6 C 58 % 1011,3 hPa 0,0 l/m 0 min 0 min 0,0 UV-I 35 W/m 0,0 km/h (0 Bft)
24.05.2013 19:58 11,2 C 9,6 C 58 % 1011,3 hPa 0,0 l/m 0 min 0 min 0,0 UV-I 33 W/m 0,0 km/h (0 Bft)
24.05.2013 20:00 11,2 C 9,6 C 58 % 1011,3 hPa 0,0 l/m 0 min 0 min 0,0 UV-I 30 W/m 2,6 km/h (1 Bft)
24.05.2013 20:02 11,1 C 9,6 C 57 % 1011,3 hPa 0,0 l/m 0 min 0 min 0,0 UV-I 26 W/m 0,0 km/h (0 Bft)
24.05.2013 20:04 11,1 C 9,6 C 58 % 1011,4 hPa 0,0 l/m 0 min 0 min 0,0 UV-I 26 W/m 10,3 km/h (2 Bft)
24.05.2013 20:06 10,9 C 9,6 C 59 % 1011,3 hPa 0,0 l/m 0 min 0 min 0,0 UV-I 26 W/m 10,3 km/h (2 Bft)
24.05.2013 20:08 10,8 C 9,0 C 59 % 1011,4 hPa 0,0 l/m 0 min 0 min 0,0 UV-I 26 W/m 0,0 km/h (0 Bft)
24.05.2013 20:10 10,8 C 9,0 C 61 % 1011,3 hPa 0,0 l/m 0 min 0 min 0,0 UV-I 26 W/m 2,6 km/h (1 Bft)
24.05.2013 20:12 10,7 C 9,0 C 62 % 1011,3 hPa 0,0 l/m 0 min 0 min 0,0 UV-I 26 W/m 2,6 km/h (1 Bft)
24.05.2013 20:14 10,6 C 9,0 C 62 % 1011,4 hPa 0,0 l/m 0 min 0 min 0,0 UV-I 26 W/m 0,0 km/h (0 Bft)
24.05.2013 20:16 10,5 C 9,0 C 63 % 1011,4 hPa 0,0 l/m 0 min 0 min 0,0 UV-I 26 W/m 0,0 km/h (0 Bft)
24.05.2013 20:18 10,5 C 9,0 C 64 % 1011,4 hPa 0,0 l/m 0 min 0 min 0,0 UV-I 25 W/m 0,0 km/h (0 Bft)
24.05.2013 20:20 10,4 C 8,4 C 65 % 1011,5 hPa 0,0 l/m 0 min 0 min 0,0 UV-I 25 W/m 0,0 km/h (0 Bft)
24.05.2013 20:22 10,3 C 8,4 C 65 % 1011,6 hPa 0,0 l/m 0 min 0 min 0,0 UV-I 23 W/m 0,0 km/h (0 Bft)
24.05.2013 20:24 10,3 C 8,4 C 65 % 1011,5 hPa 0,0 l/m 0 min 0 min 0,0 UV-I 23 W/m 0,0 km/h (0 Bft)
24.05.2013 20:26 10,3 C 8,4 C 65 % 1011,6 hPa 0,0 l/m 0 min 0 min 0,0 UV-I 23 W/m 0,0 km/h (0 Bft)
24.05.2013 20:28 10,3 C 8,4 C 66 % 1011,5 hPa 0,0 l/m 0 min 0 min 0,0 UV-I 21 W/m 0,0 km/h (0 Bft)
24.05.2013 20:30 10,2 C 8,4 C 67 % 1011,6 hPa 0,0 l/m 0 min 0 min 0,0 UV-I 21 W/m 0,0 km/h (0 Bft)
24.05.2013 20:32 10,2 C 7,9 C 68 % 1011,6 hPa 0,0 l/m 0 min 0 min 0,0 UV-I 21 W/m 0,0 km/h (0 Bft)
24.05.2013 20:34 10,1 C 7,9 C 67 % 1011,7 hPa 0,0 l/m 0 min 0 min 0,0 UV-I 19 W/m 0,0 km/h (0 Bft)
24.05.2013 20:36 10,0 C 7,9 C 67 % 1011,6 hPa 0,0 l/m 0 min 0 min 0,0 UV-I 19 W/m 0,0 km/h (0 Bft)
24.05.2013 20:38 9,9 C 7,9 C 67 % 1011,7 hPa 0,0 l/m 0 min 0 min 0,0 UV-I 18 W/m 2,6 km/h (1 Bft)
24.05.2013 20:40 9,9 C 7,9 C 67 % 1011,6 hPa 0,0 l/m 0 min 0 min 0,0 UV-I 18 W/m 0,0 km/h (0 Bft)
24.05.2013 20:42 9,9 C 7,9 C 67 % 1011,7 hPa 0,0 l/m 0 min 0 min 0,0 UV-I 18 W/m 0,0 km/h (0 Bft)
24.05.2013 20:44 9,9 C 7,9 C 68 % 1011,8 hPa 0,0 l/m 0 min 0 min 0,0 UV-I 16 W/m 0,0 km/h (0 Bft)
24.05.2013 20:46 9,9 C 7,3 C 69 % 1011,8 hPa 0,0 l/m 0 min 0 min 0,0 UV-I 16 W/m 0,0 km/h (0 Bft)
24.05.2013 20:48 9,8 C 7,3 C 68 % 1011,8 hPa 0,0 l/m 0 min 0 min 0,0 UV-I 14 W/m 0,0 km/h (0 Bft)
24.05.2013 20:50 9,8 C 7,3 C 69 % 1011,8 hPa 0,0 l/m 0 min 0 min 0,0 UV-I 14 W/m 0,0 km/h (0 Bft)
24.05.2013 20:52 9,7 C 7,3 C 70 % 1011,8 hPa 0,0 l/m 0 min 0 min 0,0 UV-I 14 W/m 0,0 km/h (0 Bft)
24.05.2013 20:54 9,7 C 7,3 C 71 % 1011,8 hPa 0,0 l/m 0 min 0 min 0,0 UV-I 14 W/m 0,0 km/h (0 Bft)
24.05.2013 20:56 9,6 C 7,3 C 71 % 1011,9 hPa 0,0 l/m 0 min 0 min 0,0 UV-I 12 W/m 0,0 km/h (0 Bft)
24.05.2013 20:58 9,5 C 6,8 C 72 % 1011,9 hPa 0,0 l/m 0 min 0 min 0,0 UV-I 12 W/m 0,0 km/h (0 Bft)
24.05.2013 21:00 9,4 C 6,8 C 71 % 1011,9 hPa 0,0 l/m 0 min 0 min 0,0 UV-I 12 W/m 0,0 km/h (0 Bft)
24.05.2013 21:02 9,3 C 6,8 C 72 % 1011,9 hPa 0,0 l/m 0 min 0 min 0,0 UV-I 12 W/m 0,0 km/h (0 Bft)
24.05.2013 21:04 9,3 C 6,8 C 73 % 1011,9 hPa 0,0 l/m 0 min 0 min 0,0 UV-I 12 W/m 0,0 km/h (0 Bft)
24.05.2013 21:06 9,1 C 6,8 C 73 % 1011,9 hPa 0,0 l/m 0 min 0 min 0,0 UV-I 12 W/m 0,0 km/h (0 Bft)
24.05.2013 21:08 9,1 C 6,8 C 73 % 1011,9 hPa 0,0 l/m 0 min 0 min 0,0 UV-I 12 W/m 0,0 km/h (0 Bft)
24.05.2013 21:10 9,0 C 6,8 C 74 % 1011,9 hPa 0,0 l/m 0 min 0 min 0,0 UV-I 11 W/m 0,0 km/h (0 Bft)
24.05.2013 21:12 8,9 C 6,8 C 74 % 1012,0 hPa 0,0 l/m 0 min 0 min 0,0 UV-I 11 W/m 0,0 km/h (0 Bft)
24.05.2013 21:14 8,8 C 6,2 C 74 % 1012,0 hPa 0,0 l/m 0 min 0 min 0,0 UV-I 11 W/m 0,0 km/h (0 Bft)
24.05.2013 21:16 8,8 C 6,2 C 74 % 1012,0 hPa 0,0 l/m 0 min 0 min 0,0 UV-I 9 W/m 0,0 km/h (0 Bft)
24.05.2013 21:18 8,8 C 6,2 C 74 % 1012,1 hPa 0,0 l/m 0 min 0 min 0,0 UV-I 9 W/m 0,0 km/h (0 Bft)
24.05.2013 21:20 8,7 C 6,2 C 75 % 1012,1 hPa 0,0 l/m 0 min 0 min 0,0 UV-I 7 W/m 0,0 km/h (0 Bft)
24.05.2013 21:22 8,6 C 6,2 C 75 % 1012,2 hPa 0,0 l/m 0 min 0 min 0,0 UV-I 7 W/m 0,0 km/h (0 Bft)
24.05.2013 21:24 8,6 C 6,2 C 75 % 1012,2 hPa 0,0 l/m 0 min 0 min 0,0 UV-I 7 W/m 0,0 km/h (0 Bft)
24.05.2013 21:26 8,6 C 6,2 C 76 % 1012,1 hPa 0,0 l/m 0 min 0 min 0,0 UV-I 5 W/m 0,0 km/h (0 Bft)
24.05.2013 21:28 8,5 C 6,2 C 77 % 1012,1 hPa 0,0 l/m 0 min 0 min 0,0 UV-I 5 W/m 0,0 km/h (0 Bft)
24.05.2013 21:30 8,4 C 6,2 C 77 % 1012,2 hPa 0,0 l/m 0 min 0 min 0,0 UV-I 5 W/m 0,0 km/h (0 Bft)
24.05.2013 21:32 8,3 C 5,7 C 77 % 1012,2 hPa 0,0 l/m 0 min 0 min 0,0 UV-I 5 W/m 0,0 km/h (0 Bft)
24.05.2013 21:34 8,3 C 5,7 C 78 % 1012,2 hPa 0,0 l/m 0 min 0 min 0,0 UV-I 0 W/m 0,0 km/h (0 Bft)
24.05.2013 21:36 8,2 C 5,7 C 78 % 1012,3 hPa 0,0 l/m 0 min 0 min 0,0 UV-I 0 W/m 0,0 km/h (0 Bft)
24.05.2013 21:38 8,1 C 5,7 C 79 % 1012,3 hPa 0,0 l/m 0 min 0 min 0,0 UV-I 0 W/m 0,0 km/h (0 Bft)
24.05.2013 21:40 7,9 C 5,7 C 80 % 1012,3 hPa 0,0 l/m 0 min 0 min 0,0 UV-I 0 W/m 0,0 km/h (0 Bft)
24.05.2013 21:42 7,8 C 5,7 C 80 % 1012,3 hPa 0,0 l/m 0 min 0 min 0,0 UV-I 0 W/m 0,0 km/h (0 Bft)
24.05.2013 21:44 7,8 C 5,7 C 80 % 1012,3 hPa 0,0 l/m 0 min 0 min 0,0 UV-I 0 W/m 0,0 km/h (0 Bft)
24.05.2013 21:46 7,8 C 5,7 C 80 % 1012,4 hPa 0,0 l/m 0 min 0 min 0,0 UV-I 0 W/m 0,0 km/h (0 Bft)
24.05.2013 21:48 7,7 C 5,7 C 80 % 1012,4 hPa 0,0 l/m 0 min 0 min 0,0 UV-I 0 W/m 0,0 km/h (0 Bft)
24.05.2013 21:50 7,7 C 5,1 C 81 % 1012,4 hPa 0,0 l/m 0 min 0 min 0,0 UV-I 0 W/m 0,0 km/h (0 Bft)
24.05.2013 21:52 7,7 C 5,1 C 81 % 1012,4 hPa 0,0 l/m 0 min 0 min 0,0 UV-I 0 W/m 0,0 km/h (0 Bft)
24.05.2013 21:54 7,6 C 5,1 C 81 % 1012,5 hPa 0,0 l/m 0 min 0 min 0,0 UV-I 0 W/m 0,0 km/h (0 Bft)
24.05.2013 21:56 7,6 C 5,1 C 81 % 1012,4 hPa 0,0 l/m 0 min 0 min 0,0 UV-I 0 W/m 0,0 km/h (0 Bft)
24.05.2013 21:58 7,7 C 5,7 C 81 % 1012,5 hPa 0,0 l/m 0 min 0 min 0,0 UV-I 0 W/m 0,0 km/h (0 Bft)
24.05.2013 22:00 7,7 C 5,7 C 81 % 1012,4 hPa 0,0 l/m 0 min 0 min 0,0 UV-I 0 W/m 0,0 km/h (0 Bft)
24.05.2013 22:02 7,7 C 5,7 C 81 % 1012,4 hPa 0,0 l/m 0 min 0 min 0,0 UV-I 0 W/m 0,0 km/h (0 Bft)
24.05.2013 22:04 7,7 C 5,7 C 81 % 1012,5 hPa 0,0 l/m 0 min 0 min 0,0 UV-I 0 W/m 0,0 km/h (0 Bft)
24.05.2013 22:06 7,7 C 5,7 C 81 % 1012,6 hPa 0,0 l/m 0 min 0 min 0,0 UV-I 0 W/m 0,0 km/h (0 Bft)
24.05.2013 22:08 7,7 C 5,7 C 81 % 1012,5 hPa 0,0 l/m 0 min 0 min 0,0 UV-I 0 W/m 0,0 km/h (0 Bft)
24.05.2013 22:10 7,7 C 5,7 C 81 % 1012,6 hPa 0,0 l/m 0 min 0 min 0,0 UV-I 0 W/m 0,0 km/h (0 Bft)
24.05.2013 22:12 7,7 C 5,7 C 81 % 1012,5 hPa 0,0 l/m 0 min 0 min 0,0 UV-I 0 W/m 0,0 km/h (0 Bft)
24.05.2013 22:14 7,6 C 5,7 C 81 % 1012,5 hPa 0,0 l/m 0 min 0 min 0,0 UV-I 0 W/m 0,0 km/h (0 Bft)
24.05.2013 22:16 7,7 C 5,7 C 81 % 1012,6 hPa 0,0 l/m 0 min 0 min 0,0 UV-I 0 W/m 0,0 km/h (0 Bft)
24.05.2013 22:18 7,6 C 5,1 C 81 % 1012,6 hPa 0,0 l/m 0 min 0 min 0,0 UV-I 0 W/m 0,0 km/h (0 Bft)
24.05.2013 22:20 7,6 C 5,1 C 81 % 1012,6 hPa 0,0 l/m 0 min 0 min 0,0 UV-I 0 W/m 0,0 km/h (0 Bft)
24.05.2013 22:22 7,6 C 5,1 C 81 % 1012,6 hPa 0,0 l/m 0 min 0 min 0,0 UV-I 0 W/m 0,0 km/h (0 Bft)
24.05.2013 22:24 7,6 C 5,1 C 81 % 1012,7 hPa 0,0 l/m 0 min 0 min 0,0 UV-I 0 W/m 0,0 km/h (0 Bft)
24.05.2013 22:26 7,6 C 5,1 C 81 % 1012,6 hPa 0,0 l/m 0 min 0 min 0,0 UV-I 0 W/m 0,0 km/h (0 Bft)
24.05.2013 22:28 7,6 C 5,1 C 81 % 1012,7 hPa 0,0 l/m 0 min 0 min 0,0 UV-I 0 W/m 0,0 km/h (0 Bft)
24.05.2013 22:30 7,6 C 5,1 C 81 % 1012,7 hPa 0,0 l/m 0 min 0 min 0,0 UV-I 0 W/m 0,0 km/h (0 Bft)
24.05.2013 22:32 7,6 C 5,1 C 81 % 1012,7 hPa 0,0 l/m 0 min 0 min 0,0 UV-I 0 W/m 0,0 km/h (0 Bft)
24.05.2013 22:34 7,5 C 5,1 C 81 % 1012,8 hPa 0,0 l/m 0 min 0 min 0,0 UV-I 0 W/m 0,0 km/h (0 Bft)
24.05.2013 22:36 7,5 C 5,1 C 81 % 1012,7 hPa 0,0 l/m 0 min 0 min 0,0 UV-I 0 W/m 0,0 km/h (0 Bft)
24.05.2013 22:38 7,5 C 5,1 C 81 % 1012,8 hPa 0,0 l/m 0 min 0 min 0,0 UV-I 0 W/m 0,0 km/h (0 Bft)
24.05.2013 22:40 7,4 C 5,1 C 81 % 1012,8 hPa 0,0 l/m 0 min 0 min 0,0 UV-I 0 W/m 0,0 km/h (0 Bft)
24.05.2013 22:42 7,4 C 5,1 C 81 % 1012,8 hPa 0,0 l/m 0 min 0 min 0,0 UV-I 0 W/m 0,0 km/h (0 Bft)
24.05.2013 22:44 7,4 C 5,1 C 81 % 1012,8 hPa 0,0 l/m 0 min 0 min 0,0 UV-I 0 W/m 0,0 km/h (0 Bft)
24.05.2013 22:46 7,4 C 5,7 C 81 % 1012,9 hPa 0,0 l/m 0 min 0 min 0,0 UV-I 0 W/m 0,0 km/h (0 Bft)
24.05.2013 22:48 7,4 C 5,7 C 81 % 1012,8 hPa 0,0 l/m 0 min 0 min 0,0 UV-I 0 W/m 0,0 km/h (0 Bft)
24.05.2013 22:50 7,3 C 5,7 C 81 % 1012,8 hPa 0,0 l/m 0 min 0 min 0,0 UV-I 0 W/m 0,0 km/h (0 Bft)
24.05.2013 22:52 7,3 C 5,7 C 81 % 1012,9 hPa 0,0 l/m 0 min 0 min 0,0 UV-I 0 W/m 0,0 km/h (0 Bft)
24.05.2013 22:54 7,3 C 5,7 C 81 % 1012,9 hPa 0,0 l/m 0 min 0 min 0,0 UV-I 0 W/m 0,0 km/h (0 Bft)
24.05.2013 22:56 7,3 C 5,7 C 82 % 1012,9 hPa 0,0 l/m 0 min 0 min 0,0 UV-I 0 W/m 0,0 km/h (0 Bft)
24.05.2013 22:58 7,3 C 5,7 C 82 % 1012,9 hPa 0,0 l/m 0 min 0 min 0,0 UV-I 0 W/m 0,0 km/h (0 Bft)
24.05.2013 23:00 7,3 C 6,2 C 82 % 1012,9 hPa 0,0 l/m 0 min 0 min 0,0 UV-I 0 W/m 0,0 km/h (0 Bft)
24.05.2013 23:02 7,3 C 6,2 C 82 % 1013,0 hPa 0,0 l/m 0 min 0 min 0,0 UV-I 0 W/m 0,0 km/h (0 Bft)
24.05.2013 23:04 7,3 C 6,2 C 83 % 1013,0 hPa 0,0 l/m 0 min 0 min 0,0 UV-I 0 W/m 0,0 km/h (0 Bft)
24.05.2013 23:06 7,3 C 6,2 C 83 % 1012,9 hPa 0,0 l/m 0 min 0 min 0,0 UV-I 0 W/m 0,0 km/h (0 Bft)
24.05.2013 23:08 7,3 C 6,2 C 83 % 1013,0 hPa 0,0 l/m 0 min 0 min 0,0 UV-I 0 W/m 0,0 km/h (0 Bft)
24.05.2013 23:10 7,3 C 5,7 C 84 % 1013,0 hPa 0,0 l/m 0 min 0 min 0,0 UV-I 0 W/m 0,0 km/h (0 Bft)
24.05.2013 23:12 7,3 C 5,7 C 84 % 1013,0 hPa 0,0 l/m 0 min 0 min 0,0 UV-I 0 W/m 0,0 km/h (0 Bft)
24.05.2013 23:14 7,3 C 5,7 C 84 % 1013,0 hPa 0,0 l/m 0 min 0 min 0,0 UV-I 0 W/m 0,0 km/h (0 Bft)
24.05.2013 23:16 7,3 C 5,7 C 84 % 1013,0 hPa 0,0 l/m 0 min 0 min 0,0 UV-I 0 W/m 0,0 km/h (0 Bft)
24.05.2013 23:18 7,3 C 5,7 C 84 % 1013,0 hPa 0,0 l/m 0 min 0 min 0,0 UV-I 0 W/m 0,0 km/h (0 Bft)
24.05.2013 23:20 7,3 C 5,7 C 84 % 1013,0 hPa 0,0 l/m 0 min 0 min 0,0 UV-I 0 W/m 0,0 km/h (0 Bft)
24.05.2013 23:22 7,3 C 5,1 C 84 % 1013,0 hPa 0,0 l/m 0 min 0 min 0,0 UV-I 0 W/m 0,0 km/h (0 Bft)
24.05.2013 23:24 7,3 C 5,1 C 84 % 1013,1 hPa 0,0 l/m 0 min 0 min 0,0 UV-I 0 W/m 0,0 km/h (0 Bft)
24.05.2013 23:26 7,3 C 5,1 C 84 % 1013,1 hPa 0,0 l/m 0 min 0 min 0,0 UV-I 0 W/m 0,0 km/h (0 Bft)
24.05.2013 23:28 7,2 C 5,1 C 84 % 1013,1 hPa 0,0 l/m 0 min 0 min 0,0 UV-I 0 W/m 0,0 km/h (0 Bft)
24.05.2013 23:30 7,2 C 5,1 C 84 % 1013,1 hPa 0,0 l/m 0 min 0 min 0,0 UV-I 0 W/m 0,0 km/h (0 Bft)
24.05.2013 23:32 7,2 C 5,1 C 84 % 1013,1 hPa 0,0 l/m 0 min 0 min 0,0 UV-I 0 W/m 0,0 km/h (0 Bft)
24.05.2013 23:34 7,2 C 5,1 C 84 % 1013,1 hPa 0,0 l/m 0 min 0 min 0,0 UV-I 0 W/m 0,0 km/h (0 Bft)
24.05.2013 23:36 7,2 C 5,1 C 84 % 1013,1 hPa 0,0 l/m 0 min 0 min 0,0 UV-I 0 W/m 0,0 km/h (0 Bft)
24.05.2013 23:38 7,2 C 5,1 C 85 % 1013,2 hPa 0,0 l/m 0 min 0 min 0,0 UV-I 0 W/m 0,0 km/h (0 Bft)
24.05.2013 23:40 7,2 C 5,1 C 85 % 1013,2 hPa 0,0 l/m 0 min 0 min 0,0 UV-I 0 W/m 0,0 km/h (0 Bft)
24.05.2013 23:42 7,1 C 5,1 C 85 % 1013,1 hPa 0,0 l/m 0 min 0 min 0,0 UV-I 0 W/m 0,0 km/h (0 Bft)
24.05.2013 23:44 7,1 C 5,1 C 85 % 1013,1 hPa 0,0 l/m 0 min 0 min 0,0 UV-I 0 W/m 0,0 km/h (0 Bft)
24.05.2013 23:46 7,1 C 5,1 C 85 % 1013,2 hPa 0,0 l/m 0 min 0 min 0,0 UV-I 0 W/m 0,0 km/h (0 Bft)
24.05.2013 23:48 7,1 C 5,1 C 85 % 1013,3 hPa 0,0 l/m 0 min 0 min 0,0 UV-I 0 W/m 0,0 km/h (0 Bft)
24.05.2013 23:50 7,1 C 4,6 C 85 % 1013,4 hPa 0,0 l/m 0 min 0 min 0,0 UV-I 0 W/m 0,0 km/h (0 Bft)
24.05.2013 23:52 7,1 C 4,6 C 85 % 1013,3 hPa 0,0 l/m 0 min 0 min 0,0 UV-I 0 W/m 0,0 km/h (0 Bft)
24.05.2013 23:54 7,0 C 4,6 C 85 % 1013,3 hPa 0,0 l/m 0 min 0 min 0,0 UV-I 0 W/m 0,0 km/h (0 Bft)
24.05.2013 23:56 6,9 C 4,6 C 85 % 1013,4 hPa 0,0 l/m 0 min 0 min 0,0 UV-I 0 W/m 0,0 km/h (0 Bft)
24.05.2013 23:58 6,9 C 4,6 C 85 % 1013,4 hPa 0,0 l/m 0 min 0 min 0,0 UV-I 0 W/m 0,0 km/h (0 Bft)
_ Min-Zeit 05:14 05:10 17:00 04:14 - - - - - 00:00
Minimum _ 2,2 C 1,2 C 46 % 1009,9 hPa - - - - - 0,0 km/h (0 Bft)
_ Max-Zeit 15:42 13:14 08:02 23:50 00:00 08:36 18:36 13:56 13:10 19:20
Maximum _ 14,4 C 20,1 C 98 % 1013,4 hPa 0,0 l/m 2 min 2 min 4,4 UV-I 1069 W/m 28,3 km/h
S-SO (4 Bft)
Durchschnitt _ 8,0 C 8,0 C 76 % 1010,8 hPa #0,0 l/m #5:40 h #12 min. 1,9 UV-I 352 W/m 4,6 km/h (1 Bft)
© 2013 W. Hausmann